Time,TemperatureF,DewpointF,PressureIn,WindDirection,WindDirectionDegrees,WindSpeedMPH,WindSpeedGustMPH,Humidity,HourlyPrecipIn,Conditions,Clouds,dailyrainin,SoftwareType,DateUTC
2013-03-03 00:00:00,33.8,22.5,29.58,NW,320,2.0,2.0,63,0.00,,---,0.00,VWS V14.00,2013-03-03 05:00:00,
2013-03-03 00:05:00,33.7,22.8,29.58,NNW,332,0.0,3.0,64,0.00,,---,0.00,VWS V14.00,2013-03-03 05:05:00,
2013-03-03 00:06:00,33.7,22.8,29.58,NNW,332,0.0,3.0,64,0.00,,---,0.00,VWS V14.00,2013-03-03 05:06:00,
2013-03-03 00:10:00,33.7,22.8,29.58,NNW,332,0.0,3.0,64,0.00,,---,0.00,VWS V14.00,2013-03-03 05:10:00,
2013-03-03 00:11:00,33.7,22.8,29.58,NNW,332,0.0,3.0,64,0.00,,---,0.00,VWS V14.00,2013-03-03 05:11:00,
2013-03-03 00:15:00,33.7,22.8,29.58,NNW,332,0.0,0.0,64,0.00,,---,0.00,VWS V14.00,2013-03-03 05:15:00,
2013-03-03 00:16:00,33.7,22.8,29.58,NNW,335,2.0,3.0,64,0.00,,---,0.00,VWS V14.00,2013-03-03 05:16:00,
2013-03-03 00:20:00,33.5,22.6,29.58,NNW,347,0.0,3.0,64,0.00,,---,0.00,VWS V14.00,2013-03-03 05:20:00,
2013-03-03 00:21:00,33.5,22.6,29.58,NNW,347,0.0,3.0,64,0.00,,---,0.00,VWS V14.00,2013-03-03 05:21:00,
2013-03-03 00:25:00,33.5,22.6,29.58,NW,326,0.0,4.0,64,0.00,,---,0.00,VWS V14.00,2013-03-03 05:25:00,
2013-03-03 00:26:00,33.5,22.6,29.58,NW,326,0.0,4.0,64,0.00,,---,0.00,VWS V14.00,2013-03-03 05:26:00,
2013-03-03 00:30:00,33.5,23.0,29.59,NW,326,0.0,0.0,65,0.00,,---,0.00,VWS V14.00,2013-03-03 05:30:00,
2013-03-03 00:31:00,33.4,22.9,29.59,NW,326,0.0,2.0,65,0.00,,---,0.00,VWS V14.00,2013-03-03 05:31:00,
2013-03-03 00:35:00,33.4,22.9,29.59,NW,326,0.0,2.0,65,0.00,,---,0.00,VWS V14.00,2013-03-03 05:35:00,
2013-03-03 00:36:00,33.4,22.9,29.59,NW,326,1.0,2.0,65,0.00,,---,0.00,VWS V14.00,2013-03-03 05:36:00,
2013-03-03 00:40:00,33.4,22.9,29.59,NNW,330,0.0,5.0,65,0.00,,---,0.00,VWS V14.00,2013-03-03 05:40:00,
2013-03-03 00:41:00,33.4,22.9,29.59,NNW,330,2.0,5.0,65,0.00,,---,0.00,VWS V14.00,2013-03-03 05:41:00,
2013-03-03 00:45:00,33.4,22.9,29.58,NNW,338,2.0,2.0,65,0.00,,---,0.00,VWS V14.00,2013-03-03 05:45:00,
2013-03-03 00:46:00,33.2,22.7,29.58,NNW,338,0.0,2.0,65,0.00,,---,0.00,VWS V14.00,2013-03-03 05:46:00,
2013-03-03 00:50:00,33.2,22.7,29.58,NNW,338,0.0,2.0,65,0.00,,---,0.00,VWS V14.00,2013-03-03 05:50:00,
2013-03-03 00:51:00,33.2,22.7,29.58,NNW,342,2.0,2.0,65,0.00,,---,0.00,VWS V14.00,2013-03-03 05:51:00,
2013-03-03 00:55:00,33.2,22.7,29.58,North,358,1.0,4.0,65,0.00,,---,0.00,VWS V14.00,2013-03-03 05:55:00,
2013-03-03 00:56:00,33.2,22.7,29.58,NNW,331,1.0,4.0,65,0.00,,---,0.00,VWS V14.00,2013-03-03 05:56:00,
2013-03-03 00:57:00,33.2,22.7,29.58,NNW,331,0.0,4.0,65,0.00,,---,0.00,VWS V14.00,2013-03-03 05:57:00,
2013-03-03 01:00:00,33.1,22.6,29.58,NNW,342,1.0,3.0,65,0.00,,---,0.00,VWS V14.00,2013-03-03 06:00:00,
2013-03-03 01:01:00,33.1,22.6,29.58,NNW,342,2.0,3.0,65,0.00,,---,0.00,VWS V14.00,2013-03-03 06:01:00,
2013-03-03 01:02:00,33.1,22.6,29.58,NNW,342,0.0,3.0,65,0.00,,---,0.00,VWS V14.00,2013-03-03 06:02:00,
2013-03-03 01:05:00,33.1,22.6,29.58,NNW,337,1.0,3.0,65,0.00,,---,0.00,VWS V14.00,2013-03-03 06:05:00,
2013-03-03 01:06:00,33.1,22.6,29.58,NNW,337,1.0,3.0,65,0.00,,---,0.00,VWS V14.00,2013-03-03 06:06:00,
2013-03-03 01:07:00,33.1,22.6,29.58,NNW,337,0.0,3.0,65,0.00,,---,0.00,VWS V14.00,2013-03-03 06:07:00,
2013-03-03 01:10:00,33.1,23.0,29.58,NNW,337,0.0,3.0,66,0.00,,---,0.00,VWS V14.00,2013-03-03 06:10:00,
2013-03-03 01:11:00,33.1,23.0,29.58,NNW,337,0.0,3.0,66,0.00,,---,0.00,VWS V14.00,2013-03-03 06:11:00,
2013-03-03 01:12:00,33.1,23.0,29.58,NNW,337,2.0,3.0,66,0.00,,---,0.00,VWS V14.00,2013-03-03 06:12:00,
2013-03-03 01:15:00,33.1,22.6,29.58,NNW,337,1.0,1.0,65,0.00,,---,0.00,VWS V14.00,2013-03-03 06:15:00,
2013-03-03 01:16:00,33.1,22.6,29.58,NNW,337,0.0,1.0,65,0.00,,---,0.00,VWS V14.00,2013-03-03 06:16:00,
2013-03-03 01:17:00,33.1,23.0,29.58,NNW,337,1.0,1.0,66,0.00,,---,0.00,VWS V14.00,2013-03-03 06:17:00,
2013-03-03 01:20:00,33.1,22.6,29.58,NNW,337,0.0,4.0,65,0.00,,---,0.00,VWS V14.00,2013-03-03 06:20:00,
2013-03-03 01:21:00,33.1,22.6,29.58,NNW,337,0.0,4.0,65,0.00,,---,0.00,VWS V14.00,2013-03-03 06:21:00,
2013-03-03 01:22:00,33.1,22.6,29.58,NNW,337,0.0,4.0,65,0.00,,---,0.00,VWS V14.00,2013-03-03 06:22:00,
2013-03-03 01:26:00,32.9,22.8,29.58,NNW,337,0.0,4.0,66,0.00,,---,0.00,VWS V14.00,2013-03-03 06:26:00,
2013-03-03 01:27:00,32.9,22.8,29.58,NNW,337,1.0,4.0,66,0.00,,---,0.00,VWS V14.00,2013-03-03 06:27:00,
2013-03-03 01:30:00,32.7,23.0,29.57,NNW,338,0.0,3.0,67,0.00,,---,0.00,VWS V14.00,2013-03-03 06:30:00,
2013-03-03 01:31:00,32.9,22.8,29.58,NNW,337,1.0,2.0,66,0.00,,---,0.00,VWS V14.00,2013-03-03 06:31:00,
2013-03-03 01:32:00,32.9,22.8,29.58,NNW,337,2.0,3.0,66,0.00,,---,0.00,VWS V14.00,2013-03-03 06:32:00,
2013-03-03 01:36:00,32.9,22.8,29.58,NW,326,2.0,3.0,66,0.00,,---,0.00,VWS V14.00,2013-03-03 06:36:00,
2013-03-03 01:37:00,32.9,22.8,29.58,NNW,335,0.0,4.0,66,0.00,,---,0.00,VWS V14.00,2013-03-03 06:37:00,
2013-03-03 01:41:00,32.9,22.8,29.58,NNW,335,0.0,4.0,66,0.00,,---,0.00,VWS V14.00,2013-03-03 06:41:00,
2013-03-03 01:42:00,32.9,22.8,29.58,NNW,335,3.0,4.0,66,0.00,,---,0.00,VWS V14.00,2013-03-03 06:42:00,
2013-03-03 01:45:00,32.5,22.8,29.57,NNW,333,0.0,4.0,67,0.00,,---,0.00,VWS V14.00,2013-03-03 06:45:00,
2013-03-03 01:46:00,32.8,22.7,29.58,NNW,333,2.0,3.0,66,0.00,,---,0.00,VWS V14.00,2013-03-03 06:46:00,
2013-03-03 01:47:00,32.8,22.7,29.58,NNW,333,0.0,3.0,66,0.00,,---,0.00,VWS V14.00,2013-03-03 06:47:00,
2013-03-03 01:51:00,32.8,22.7,29.58,NNW,333,0.0,3.0,66,0.00,,---,0.00,VWS V14.00,2013-03-03 06:51:00,
2013-03-03 01:52:00,32.8,22.7,29.58,NNW,333,0.0,3.0,66,0.00,,---,0.00,VWS V14.00,2013-03-03 06:52:00,
2013-03-03 01:53:00,32.8,22.7,29.58,NNW,330,3.0,5.0,66,0.00,,---,0.00,VWS V14.00,2013-03-03 06:53:00,
2013-03-03 01:56:00,32.8,22.7,29.58,NNW,332,1.0,5.0,66,0.00,,---,0.00,VWS V14.00,2013-03-03 06:56:00,
2013-03-03 01:57:00,32.8,22.7,29.58,NNW,332,0.0,5.0,66,0.00,,---,0.00,VWS V14.00,2013-03-03 06:57:00,
2013-03-03 01:58:00,32.8,22.7,29.58,NNW,332,2.0,5.0,66,0.00,,---,0.00,VWS V14.00,2013-03-03 06:58:00,
2013-03-03 02:00:00,32.5,22.8,29.57,NW,323,3.0,5.0,67,0.00,,---,0.00,VWS V14.00,2013-03-03 07:00:00,
2013-03-03 02:01:00,32.8,22.7,29.57,NNW,332,0.0,3.0,66,0.00,,---,0.00,VWS V14.00,2013-03-03 07:01:00,
2013-03-03 02:02:00,32.8,22.7,29.57,NNW,332,1.0,3.0,66,0.00,,---,0.00,VWS V14.00,2013-03-03 07:02:00,
2013-03-03 02:03:00,32.8,22.7,29.57,East,83,2.0,3.0,66,0.00,,---,0.00,VWS V14.00,2013-03-03 07:03:00,
2013-03-03 02:06:00,32.8,22.7,29.57,North,359,0.0,4.0,66,0.00,,---,0.00,VWS V14.00,2013-03-03 07:06:00,
2013-03-03 02:07:00,32.8,22.7,29.57,North,359,0.0,4.0,66,0.00,,---,0.00,VWS V14.00,2013-03-03 07:07:00,
2013-03-03 02:08:00,32.8,23.1,29.57,North,359,0.0,4.0,67,0.00,,---,0.00,VWS V14.00,2013-03-03 07:08:00,
2013-03-03 02:11:00,32.8,23.1,29.57,North,359,0.0,4.0,67,0.00,,---,0.00,VWS V14.00,2013-03-03 07:11:00,
2013-03-03 02:12:00,32.8,23.1,29.57,North,359,1.0,4.0,67,0.00,,---,0.00,VWS V14.00,2013-03-03 07:12:00,
2013-03-03 02:13:00,32.8,23.1,29.57,NNW,347,3.0,4.0,67,0.00,,---,0.00,VWS V14.00,2013-03-03 07:13:00,
2013-03-03 02:15:00,32.4,22.7,29.56,North,359,0.0,6.0,67,0.00,,---,0.00,VWS V14.00,2013-03-03 07:15:00,
2013-03-03 02:16:00,32.7,22.6,29.57,NNW,333,0.0,3.0,66,0.00,,---,0.00,VWS V14.00,2013-03-03 07:16:00,
2013-03-03 02:17:00,32.7,23.0,29.57,NNW,333,1.0,3.0,67,0.00,,---,0.00,VWS V14.00,2013-03-03 07:17:00,
2013-03-03 02:18:00,32.7,23.0,29.57,NNW,333,0.0,3.0,67,0.00,,---,0.00,VWS V14.00,2013-03-03 07:18:00,
2013-03-03 02:21:00,32.7,23.0,29.57,NNW,333,0.0,3.0,67,0.00,,---,0.00,VWS V14.00,2013-03-03 07:21:00,
2013-03-03 02:22:00,32.7,23.0,29.57,NNW,333,0.0,3.0,67,0.00,,---,0.00,VWS V14.00,2013-03-03 07:22:00,
2013-03-03 02:24:00,32.7,23.0,29.57,NNW,333,0.0,3.0,67,0.00,,---,0.00,VWS V14.00,2013-03-03 07:24:00,
2013-03-03 02:26:00,32.7,23.0,29.57,NNW,338,2.0,3.0,67,0.00,,---,0.00,VWS V14.00,2013-03-03 07:26:00,
2013-03-03 02:27:00,32.7,23.0,29.57,NNW,338,0.0,3.0,67,0.00,,---,0.00,VWS V14.00,2013-03-03 07:27:00,
2013-03-03 02:29:00,32.7,23.0,29.57,NNW,338,1.0,3.0,67,0.00,,---,0.00,VWS V14.00,2013-03-03 07:29:00,
2013-03-03 02:30:00,32.4,23.0,29.56,NNW,348,2.0,4.0,68,0.00,,---,0.00,VWS V14.00,2013-03-03 07:30:00,
2013-03-03 02:31:00,32.7,23.0,29.57,NNW,337,0.0,1.0,67,0.00,,---,0.00,VWS V14.00,2013-03-03 07:31:00,
2013-03-03 02:32:00,32.7,23.0,29.57,NNW,337,2.0,2.0,67,0.00,,---,0.00,VWS V14.00,2013-03-03 07:32:00,
2013-03-03 02:33:00,32.7,23.0,29.57,NNW,337,0.0,2.0,67,0.00,,---,0.00,VWS V14.00,2013-03-03 07:33:00,
2013-03-03 02:34:00,32.7,23.0,29.57,NNW,337,2.0,3.0,67,0.00,,---,0.00,VWS V14.00,2013-03-03 07:34:00,
2013-03-03 02:37:00,32.7,23.0,29.57,NNW,340,0.0,4.0,67,0.00,,---,0.00,VWS V14.00,2013-03-03 07:37:00,
2013-03-03 02:38:00,32.5,22.8,29.57,NNW,340,1.0,4.0,67,0.00,,---,0.00,VWS V14.00,2013-03-03 07:38:00,
2013-03-03 02:39:00,32.5,22.8,29.57,NNW,340,0.0,4.0,67,0.00,,---,0.00,VWS V14.00,2013-03-03 07:39:00,
2013-03-03 02:42:00,32.5,22.8,29.57,NNW,331,2.0,4.0,67,0.00,,---,0.00,VWS V14.00,2013-03-03 07:42:00,
2013-03-03 02:43:00,32.5,22.8,29.57,NNW,333,0.0,4.0,67,0.00,,---,0.00,VWS V14.00,2013-03-03 07:43:00,
2013-03-03 02:44:00,32.5,22.8,29.57,NNW,332,0.0,0.0,67,0.00,,---,0.00,VWS V14.00,2013-03-03 07:44:00,
2013-03-03 02:45:00,32.4,23.0,29.56,NNW,347,0.0,3.0,68,0.00,,---,0.00,VWS V14.00,2013-03-03 07:45:00,
2013-03-03 02:47:00,32.5,23.1,29.57,NNW,333,0.0,1.0,68,0.00,,---,0.00,VWS V14.00,2013-03-03 07:47:00,
2013-03-03 02:48:00,32.5,22.8,29.57,NNW,333,0.0,1.0,67,0.00,,---,0.00,VWS V14.00,2013-03-03 07:48:00,
2013-03-03 02:49:00,32.5,22.8,29.57,North,355,1.0,4.0,67,0.00,,---,0.00,VWS V14.00,2013-03-03 07:49:00,
2013-03-03 02:52:00,32.5,22.8,29.57,NNW,345,2.0,4.0,67,0.00,,---,0.00,VWS V14.00,2013-03-03 07:52:00,
2013-03-03 02:53:00,32.5,22.8,29.57,NW,324,2.0,5.0,67,0.00,,---,0.00,VWS V14.00,2013-03-03 07:53:00,
2013-03-03 02:54:00,32.5,22.8,29.57,NNW,345,0.0,5.0,67,0.00,,---,0.00,VWS V14.00,2013-03-03 07:54:00,
2013-03-03 02:57:00,32.5,22.8,29.57,NNW,345,0.0,5.0,67,0.00,,---,0.00,VWS V14.00,2013-03-03 07:57:00,
2013-03-03 02:58:00,32.5,22.8,29.57,NNW,344,2.0,5.0,67,0.00,,---,0.00,VWS V14.00,2013-03-03 07:58:00,
2013-03-03 02:59:00,32.5,22.8,29.57,NW,323,3.0,3.0,67,0.00,,---,0.00,VWS V14.00,2013-03-03 07:59:00,
2013-03-03 03:00:00,32.4,23.0,29.56,North,356,1.0,3.0,68,0.00,,---,0.00,VWS V14.00,2013-03-03 08:00:00,
2013-03-03 03:02:00,32.5,22.8,29.57,NW,324,0.0,3.0,67,0.00,,---,0.00,VWS V14.00,2013-03-03 08:02:00,
2013-03-03 03:03:00,32.5,22.8,29.57,NW,324,0.0,3.0,67,0.00,,---,0.00,VWS V14.00,2013-03-03 08:03:00,
2013-03-03 03:04:00,32.5,22.8,29.57,NNW,333,2.0,4.0,67,0.00,,---,0.00,VWS V14.00,2013-03-03 08:04:00,
2013-03-03 03:07:00,32.5,22.8,29.57,NNW,333,3.0,4.0,67,0.00,,---,0.00,VWS V14.00,2013-03-03 08:07:00,
2013-03-03 03:08:00,32.5,22.8,29.57,NNW,336,4.0,6.0,67,0.00,,---,0.00,VWS V14.00,2013-03-03 08:08:00,
2013-03-03 03:09:00,32.5,22.8,29.57,NNW,335,1.0,6.0,67,0.00,,---,0.00,VWS V14.00,2013-03-03 08:09:00,
2013-03-03 03:12:00,32.5,22.8,29.57,North,359,1.0,6.0,67,0.00,,---,0.00,VWS V14.00,2013-03-03 08:12:00,
2013-03-03 03:13:00,32.5,22.8,29.56,North,359,1.0,6.0,67,0.00,,---,0.00,VWS V14.00,2013-03-03 08:13:00,
2013-03-03 03:15:00,32.5,22.8,29.56,North,359,0.0,0.0,67,0.00,,---,0.00,VWS V14.00,2013-03-03 08:15:00,
2013-03-03 03:17:00,32.4,22.7,29.56,North,359,0.0,2.0,67,0.00,,---,0.00,VWS V14.00,2013-03-03 08:17:00,
2013-03-03 03:18:00,32.4,22.7,29.56,North,359,1.0,2.0,67,0.00,,---,0.00,VWS V14.00,2013-03-03 08:18:00,
2013-03-03 03:20:00,32.4,23.0,29.56,North,359,1.0,2.0,68,0.00,,---,0.00,VWS V14.00,2013-03-03 08:20:00,
2013-03-03 03:22:00,32.4,23.0,29.56,NNW,348,3.0,4.0,68,0.00,,---,0.00,VWS V14.00,2013-03-03 08:22:00,
2013-03-03 03:23:00,32.4,22.7,29.56,NNW,348,0.0,4.0,67,0.00,,---,0.00,VWS V14.00,2013-03-03 08:23:00,
2013-03-03 03:24:00,32.4,22.7,29.56,NNW,348,0.0,4.0,67,0.00,,---,0.00,VWS V14.00,2013-03-03 08:24:00,
2013-03-03 03:25:00,32.4,22.7,29.56,NNW,348,1.0,4.0,67,0.00,,---,0.00,VWS V14.00,2013-03-03 08:25:00,
2013-03-03 03:27:00,32.4,22.7,29.56,NNW,348,0.0,4.0,67,0.00,,---,0.00,VWS V14.00,2013-03-03 08:27:00,
2013-03-03 03:28:00,32.4,22.7,29.56,NNW,348,0.0,4.0,67,0.00,,---,0.00,VWS V14.00,2013-03-03 08:28:00,
2013-03-03 03:29:00,32.4,22.7,29.56,NNW,348,2.0,4.0,67,0.00,,---,0.00,VWS V14.00,2013-03-03 08:29:00,
2013-03-03 03:30:00,32.4,23.0,29.56,NNW,348,3.0,3.0,68,0.00,,---,0.00,VWS V14.00,2013-03-03 08:30:00,
2013-03-03 03:32:00,32.4,22.7,29.56,NNW,347,0.0,3.0,67,0.00,,---,0.00,VWS V14.00,2013-03-03 08:32:00,
2013-03-03 03:33:00,32.4,23.0,29.56,NNW,348,0.0,3.0,68,0.00,,---,0.00,VWS V14.00,2013-03-03 08:33:00,
2013-03-03 03:34:00,32.4,23.0,29.56,NNW,347,1.0,3.0,68,0.00,,---,0.00,VWS V14.00,2013-03-03 08:34:00,
2013-03-03 03:35:00,32.4,23.0,29.56,NNW,347,1.0,3.0,68,0.00,,---,0.00,VWS V14.00,2013-03-03 08:35:00,
2013-03-03 03:37:00,32.4,23.0,29.56,NNW,347,0.0,3.0,68,0.00,,---,0.00,VWS V14.00,2013-03-03 08:37:00,
2013-03-03 03:38:00,32.4,23.0,29.56,NNW,347,0.0,3.0,68,0.00,,---,0.00,VWS V14.00,2013-03-03 08:38:00,
2013-03-03 03:40:00,32.4,23.0,29.56,NNW,348,0.0,3.0,68,0.00,,---,0.00,VWS V14.00,2013-03-03 08:40:00,
2013-03-03 03:43:00,32.4,23.0,29.56,NNW,347,3.0,3.0,68,0.00,,---,0.00,VWS V14.00,2013-03-03 08:43:00,
2013-03-03 03:45:00,32.4,23.0,29.56,NNW,347,1.0,1.0,68,0.00,,---,0.00,VWS V14.00,2013-03-03 08:45:00,
2013-03-03 03:48:00,32.4,23.0,29.56,NNW,347,0.0,2.0,68,0.00,,---,0.00,VWS V14.00,2013-03-03 08:48:00,
2013-03-03 03:50:00,32.4,23.0,29.56,NNW,348,0.0,2.0,68,0.00,,---,0.00,VWS V14.00,2013-03-03 08:50:00,
2013-03-03 03:53:00,32.4,23.0,29.56,North,356,0.0,3.0,68,0.00,,---,0.00,VWS V14.00,2013-03-03 08:53:00,
2013-03-03 03:54:00,32.4,23.0,29.56,North,356,0.0,3.0,68,0.00,,---,0.00,VWS V14.00,2013-03-03 08:54:00,
2013-03-03 03:55:00,32.4,23.0,29.56,North,356,0.0,3.0,68,0.00,,---,0.00,VWS V14.00,2013-03-03 08:55:00,
2013-03-03 03:58:00,32.4,23.0,29.56,North,356,0.0,3.0,68,0.00,,---,0.00,VWS V14.00,2013-03-03 08:58:00,
2013-03-03 03:59:00,32.4,23.0,29.56,North,356,1.0,3.0,68,0.00,,---,0.00,VWS V14.00,2013-03-03 08:59:00,
2013-03-03 04:00:00,32.4,23.0,29.56,North,356,2.0,2.0,68,0.00,,---,0.00,VWS V14.00,2013-03-03 09:00:00,
2013-03-03 04:03:00,32.4,22.7,29.56,North,356,1.0,3.0,67,0.00,,---,0.00,VWS V14.00,2013-03-03 09:03:00,
2013-03-03 04:04:00,32.4,22.7,29.56,North,356,1.0,3.0,67,0.00,,---,0.00,VWS V14.00,2013-03-03 09:04:00,
2013-03-03 04:05:00,32.4,23.0,29.56,North,356,1.0,3.0,68,0.00,,---,0.00,VWS V14.00,2013-03-03 09:05:00,
2013-03-03 04:08:00,32.4,22.7,29.56,North,359,0.0,4.0,67,0.00,,---,0.00,VWS V14.00,2013-03-03 09:08:00,
2013-03-03 04:09:00,32.4,22.7,29.56,North,359,0.0,4.0,67,0.00,,---,0.00,VWS V14.00,2013-03-03 09:09:00,
2013-03-03 04:10:00,32.4,22.7,29.56,North,359,0.0,4.0,67,0.00,,---,0.00,VWS V14.00,2013-03-03 09:10:00,
2013-03-03 04:11:00,32.4,22.7,29.56,North,359,0.0,4.0,67,0.00,,---,0.00,VWS V14.00,2013-03-03 09:11:00,
2013-03-03 04:13:00,32.4,22.7,29.56,North,356,3.0,4.0,67,0.00,,---,0.00,VWS V14.00,2013-03-03 09:13:00,
2013-03-03 04:15:00,32.4,22.7,29.56,NNW,334,3.0,4.0,67,0.00,,---,0.00,VWS V14.00,2013-03-03 09:15:00,
2013-03-03 04:16:00,32.4,22.7,29.56,NNW,334,0.0,4.0,67,0.00,,---,0.00,VWS V14.00,2013-03-03 09:16:00,
2013-03-03 04:18:00,32.4,22.7,29.56,NNW,334,0.0,4.0,67,0.00,,---,0.00,VWS V14.00,2013-03-03 09:18:00,
2013-03-03 04:20:00,32.4,22.7,29.56,NNW,334,1.0,4.0,67,0.00,,---,0.00,VWS V14.00,2013-03-03 09:20:00,
2013-03-03 04:21:00,32.4,22.7,29.56,NNW,334,1.0,4.0,67,0.00,,---,0.00,VWS V14.00,2013-03-03 09:21:00,
2013-03-03 04:23:00,32.2,22.5,29.56,NNW,347,1.0,4.0,67,0.00,,---,0.00,VWS V14.00,2013-03-03 09:23:00,
2013-03-03 04:25:00,32.2,22.5,29.56,NNW,348,2.0,4.0,67,0.00,,---,0.00,VWS V14.00,2013-03-03 09:25:00,
2013-03-03 04:26:00,32.2,22.5,29.56,NW,326,3.0,4.0,67,0.00,,---,0.00,VWS V14.00,2013-03-03 09:26:00,
2013-03-03 04:28:00,32.2,22.5,29.56,NNW,345,1.0,6.0,67,0.00,,---,0.00,VWS V14.00,2013-03-03 09:28:00,
2013-03-03 04:30:00,32.1,22.8,29.56,NNW,329,2.0,3.0,68,0.00,,---,0.00,VWS V14.00,2013-03-03 09:30:00,
2013-03-03 04:31:00,32.2,22.5,29.56,NNW,343,0.0,3.0,67,0.00,,---,0.00,VWS V14.00,2013-03-03 09:31:00,
2013-03-03 04:34:00,32.2,22.5,29.56,WNW,293,0.0,3.0,67,0.00,,---,0.00,VWS V14.00,2013-03-03 09:34:00,
2013-03-03 04:36:00,32.2,22.5,29.56,WNW,299,0.0,3.0,67,0.00,,---,0.00,VWS V14.00,2013-03-03 09:36:00,
2013-03-03 04:37:00,32.2,22.5,29.56,WNW,299,0.0,3.0,67,0.00,,---,0.00,VWS V14.00,2013-03-03 09:37:00,
2013-03-03 04:39:00,32.2,22.5,29.56,WNW,300,1.0,3.0,67,0.00,,---,0.00,VWS V14.00,2013-03-03 09:39:00,
2013-03-03 04:41:00,32.2,22.5,29.56,WNW,300,0.0,3.0,67,0.00,,---,0.00,VWS V14.00,2013-03-03 09:41:00,
2013-03-03 04:42:00,32.2,22.5,29.56,WNW,300,0.0,3.0,67,0.00,,---,0.00,VWS V14.00,2013-03-03 09:42:00,
2013-03-03 04:44:00,32.2,22.5,29.56,WNW,300,1.0,3.0,67,0.00,,---,0.00,VWS V14.00,2013-03-03 09:44:00,
2013-03-03 04:45:00,31.9,22.9,29.57,NNW,337,0.0,9.0,69,0.00,,---,0.00,VWS V14.00,2013-03-03 09:45:00,
2013-03-03 04:46:00,32.2,22.5,29.56,WNW,301,3.0,3.0,67,0.00,,---,0.00,VWS V14.00,2013-03-03 09:46:00,
2013-03-03 04:47:00,32.2,22.5,29.56,NW,309,0.0,3.0,67,0.00,,---,0.00,VWS V14.00,2013-03-03 09:47:00,
2013-03-03 04:49:00,32.1,22.4,29.56,NW,323,4.0,4.0,67,0.00,,---,0.00,VWS V14.00,2013-03-03 09:49:00,
2013-03-03 04:51:00,32.1,22.4,29.56,NW,326,0.0,4.0,67,0.00,,---,0.00,VWS V14.00,2013-03-03 09:51:00,
2013-03-03 04:52:00,32.1,22.4,29.56,NW,326,0.0,4.0,67,0.00,,---,0.00,VWS V14.00,2013-03-03 09:52:00,
2013-03-03 04:54:00,32.1,22.4,29.56,NW,326,0.0,4.0,67,0.00,,---,0.00,VWS V14.00,2013-03-03 09:54:00,
2013-03-03 04:56:00,32.1,22.4,29.56,NW,326,0.0,4.0,67,0.00,,---,0.00,VWS V14.00,2013-03-03 09:56:00,
2013-03-03 04:57:00,32.1,22.4,29.56,NW,326,0.0,4.0,67,0.00,,---,0.00,VWS V14.00,2013-03-03 09:57:00,
2013-03-03 04:59:00,32.1,22.4,29.56,NNW,328,0.0,0.0,67,0.00,,---,0.00,VWS V14.00,2013-03-03 09:59:00,
2013-03-03 05:00:00,31.6,23.0,29.57,NNW,337,0.0,3.0,70,0.00,,---,0.00,VWS V14.00,2013-03-03 10:00:00,
2013-03-03 05:01:00,32.1,22.4,29.56,NNW,328,0.0,3.0,67,0.00,,---,0.00,VWS V14.00,2013-03-03 10:01:00,
2013-03-03 05:02:00,32.1,22.4,29.56,NNW,328,0.0,3.0,67,0.00,,---,0.00,VWS V14.00,2013-03-03 10:02:00,
2013-03-03 05:04:00,32.1,22.4,29.56,NNW,328,0.0,3.0,67,0.00,,---,0.00,VWS V14.00,2013-03-03 10:04:00,
2013-03-03 05:06:00,32.1,22.4,29.56,NNW,328,0.0,3.0,67,0.00,,---,0.00,VWS V14.00,2013-03-03 10:06:00,
2013-03-03 05:07:00,32.1,22.4,29.56,NNW,328,2.0,3.0,67,0.00,,---,0.00,VWS V14.00,2013-03-03 10:07:00,
2013-03-03 05:10:00,32.1,22.4,29.56,NNW,328,0.0,3.0,67,0.00,,---,0.00,VWS V14.00,2013-03-03 10:10:00,
2013-03-03 05:11:00,32.1,22.4,29.56,NNW,328,1.0,3.0,67,0.00,,---,0.00,VWS V14.00,2013-03-03 10:11:00,
2013-03-03 05:12:00,32.1,22.4,29.56,NNW,328,0.0,3.0,67,0.00,,---,0.00,VWS V14.00,2013-03-03 10:12:00,
2013-03-03 05:15:00,32.1,22.4,29.56,NNW,328,0.0,0.0,67,0.00,,---,0.00,VWS V14.00,2013-03-03 10:15:00,
2013-03-03 05:17:00,32.1,22.4,29.56,NNW,328,0.0,2.0,67,0.00,,---,0.00,VWS V14.00,2013-03-03 10:17:00,
2013-03-03 05:20:00,32.1,22.4,29.56,NNW,328,0.0,2.0,67,0.00,,---,0.00,VWS V14.00,2013-03-03 10:20:00,
2013-03-03 05:22:00,32.1,22.4,29.56,NNW,328,0.0,2.0,67,0.00,,---,0.00,VWS V14.00,2013-03-03 10:22:00,
2013-03-03 05:25:00,32.1,22.8,29.56,NNW,328,0.0,3.0,68,0.00,,---,0.00,VWS V14.00,2013-03-03 10:25:00,
2013-03-03 05:27:00,32.1,22.4,29.56,NNW,328,0.0,3.0,67,0.00,,---,0.00,VWS V14.00,2013-03-03 10:27:00,
2013-03-03 05:28:00,32.1,22.4,29.56,NNW,328,0.0,3.0,67,0.00,,---,0.00,VWS V14.00,2013-03-03 10:28:00,
2013-03-03 05:30:00,32.1,22.8,29.56,NNW,329,0.0,0.0,68,0.00,,---,0.00,VWS V14.00,2013-03-03 10:30:00,
2013-03-03 05:32:00,32.1,22.8,29.56,NNW,329,2.0,3.0,68,0.00,,---,0.00,VWS V14.00,2013-03-03 10:32:00,
2013-03-03 05:33:00,31.9,22.5,29.56,NNW,329,0.0,3.0,68,0.00,,---,0.00,VWS V14.00,2013-03-03 10:33:00,
2013-03-03 05:35:00,31.9,22.5,29.56,NNW,329,0.0,3.0,68,0.00,,---,0.00,VWS V14.00,2013-03-03 10:35:00,
2013-03-03 05:37:00,31.9,22.5,29.56,NNW,329,0.0,3.0,68,0.00,,---,0.00,VWS V14.00,2013-03-03 10:37:00,
2013-03-03 05:38:00,31.9,22.5,29.56,NNW,329,0.0,3.0,68,0.00,,---,0.00,VWS V14.00,2013-03-03 10:38:00,
2013-03-03 05:40:00,31.9,22.5,29.56,NNW,329,4.0,4.0,68,0.00,,---,0.00,VWS V14.00,2013-03-03 10:40:00,
2013-03-03 05:42:00,31.9,22.5,29.56,NNW,337,1.0,9.0,68,0.00,,---,0.00,VWS V14.00,2013-03-03 10:42:00,
2013-03-03 05:43:00,31.9,22.5,29.56,NNW,338,1.0,9.0,68,0.00,,---,0.00,VWS V14.00,2013-03-03 10:43:00,
2013-03-03 05:45:00,31.9,22.9,29.57,NNW,337,1.0,2.0,69,0.00,,---,0.00,VWS V14.00,2013-03-03 10:45:00,
2013-03-03 05:47:00,31.8,22.8,29.57,NNW,337,1.0,3.0,69,0.00,,---,0.00,VWS V14.00,2013-03-03 10:47:00,
2013-03-03 05:48:00,31.8,22.8,29.57,NNW,337,0.0,3.0,69,0.00,,---,0.00,VWS V14.00,2013-03-03 10:48:00,
2013-03-03 05:50:00,31.8,22.8,29.57,NNW,337,0.0,3.0,69,0.00,,---,0.00,VWS V14.00,2013-03-03 10:50:00,
2013-03-03 05:52:00,31.8,22.8,29.57,NNW,338,0.0,3.0,69,0.00,,---,0.00,VWS V14.00,2013-03-03 10:52:00,
2013-03-03 05:53:00,31.8,22.8,29.57,NNW,338,0.0,3.0,69,0.00,,---,0.00,VWS V14.00,2013-03-03 10:53:00,
2013-03-03 05:55:00,31.8,23.1,29.57,NNW,337,0.0,3.0,70,0.00,,---,0.00,VWS V14.00,2013-03-03 10:55:00,
2013-03-03 05:58:00,31.6,23.0,29.57,NNW,337,0.0,3.0,70,0.00,,---,0.00,VWS V14.00,2013-03-03 10:58:00,
2013-03-03 06:00:00,31.6,23.0,29.57,NNW,337,0.0,0.0,70,0.00,,---,0.00,VWS V14.00,2013-03-03 11:00:00,
2013-03-03 06:03:00,31.6,23.0,29.57,NNW,337,2.0,2.0,70,0.00,,---,0.00,VWS V14.00,2013-03-03 11:03:00,
2013-03-03 06:04:00,31.6,23.0,29.57,NNW,331,0.0,4.0,70,0.00,,---,0.00,VWS V14.00,2013-03-03 11:04:00,
2013-03-03 06:05:00,31.6,23.0,29.57,NNW,331,2.0,4.0,70,0.00,,---,0.00,VWS V14.00,2013-03-03 11:05:00,
2013-03-03 06:08:00,31.5,23.2,29.57,North,350,2.0,5.0,71,0.00,,---,0.00,VWS V14.00,2013-03-03 11:08:00,
2013-03-03 06:09:00,31.5,23.2,29.57,North,359,0.0,5.0,71,0.00,,---,0.00,VWS V14.00,2013-03-03 11:09:00,
2013-03-03 06:10:00,31.5,23.2,29.57,North,359,0.0,5.0,71,0.00,,---,0.00,VWS V14.00,2013-03-03 11:10:00,
2013-03-03 06:13:00,31.3,23.0,29.57,NNW,328,3.0,5.0,71,0.00,,---,0.00,VWS V14.00,2013-03-03 11:13:00,
2013-03-03 06:14:00,31.3,23.0,29.57,North,359,0.0,2.0,71,0.00,,---,0.00,VWS V14.00,2013-03-03 11:14:00,
2013-03-03 06:15:00,31.3,23.0,29.57,North,359,1.0,2.0,71,0.00,,---,0.00,VWS V14.00,2013-03-03 11:15:00,
2013-03-03 06:18:00,31.2,23.2,29.57,North,359,2.0,6.0,72,0.00,,---,0.00,VWS V14.00,2013-03-03 11:18:00,
2013-03-03 06:20:00,31.2,23.2,29.57,North,357,3.0,6.0,72,0.00,,---,0.00,VWS V14.00,2013-03-03 11:20:00,
2013-03-03 06:23:00,31.0,23.0,29.57,North,357,1.0,6.0,72,0.00,,---,0.00,VWS V14.00,2013-03-03 11:23:00,
2013-03-03 06:25:00,31.0,23.4,29.57,NNW,343,2.0,6.0,73,0.00,,---,0.00,VWS V14.00,2013-03-03 11:25:00,
2013-03-03 06:26:00,31.0,23.4,29.57,NNW,343,1.0,6.0,73,0.00,,---,0.00,VWS V14.00,2013-03-03 11:26:00,
2013-03-03 06:28:00,31.0,23.4,29.57,NW,319,1.0,6.0,73,0.00,,---,0.00,VWS V14.00,2013-03-03 11:28:00,
2013-03-03 06:30:00,30.9,23.3,29.57,NW,321,3.0,4.0,73,0.00,,---,0.00,VWS V14.00,2013-03-03 11:30:00,
2013-03-03 06:31:00,30.9,23.3,29.57,NNW,333,4.0,5.0,73,0.00,,---,0.00,VWS V14.00,2013-03-03 11:31:00,
2013-03-03 06:33:00,30.9,23.3,29.57,NW,325,0.0,5.0,73,0.00,,---,0.00,VWS V14.00,2013-03-03 11:33:00,
2013-03-03 06:35:00,30.9,23.6,29.57,NW,325,2.0,5.0,74,0.00,,---,0.00,VWS V14.00,2013-03-03 11:35:00,
2013-03-03 06:36:00,30.9,23.6,29.57,NW,325,0.0,5.0,74,0.00,,---,0.00,VWS V14.00,2013-03-03 11:36:00,
2013-03-03 06:38:00,30.9,23.6,29.57,NW,325,0.0,5.0,74,0.00,,---,0.00,VWS V14.00,2013-03-03 11:38:00,
2013-03-03 06:40:00,30.9,23.6,29.57,NW,325,3.0,5.0,74,0.00,,---,0.00,VWS V14.00,2013-03-03 11:40:00,
2013-03-03 06:41:00,30.9,23.6,29.57,NNW,335,2.0,5.0,74,0.00,,---,0.00,VWS V14.00,2013-03-03 11:41:00,
2013-03-03 06:43:00,30.9,23.6,29.58,NNW,340,2.0,5.0,74,0.00,,---,0.00,VWS V14.00,2013-03-03 11:43:00,
2013-03-03 06:45:00,30.9,23.6,29.58,NNW,340,1.0,1.0,74,0.00,,---,0.00,VWS V14.00,2013-03-03 11:45:00,
2013-03-03 06:46:00,30.9,23.6,29.58,NNW,340,0.0,1.0,74,0.00,,---,0.00,VWS V14.00,2013-03-03 11:46:00,
2013-03-03 06:48:00,30.9,23.6,29.58,NNW,340,1.0,4.0,74,0.00,,---,0.00,VWS V14.00,2013-03-03 11:48:00,
2013-03-03 06:50:00,30.9,23.6,29.58,NNW,340,1.0,4.0,74,0.00,,---,0.00,VWS V14.00,2013-03-03 11:50:00,
2013-03-03 06:51:00,30.9,23.6,29.58,North,354,4.0,4.0,74,0.00,,---,0.00,VWS V14.00,2013-03-03 11:51:00,
2013-03-03 06:53:00,30.9,23.6,29.58,North,353,3.0,4.0,74,0.00,,---,0.00,VWS V14.00,2013-03-03 11:53:00,
2013-03-03 06:55:00,30.9,23.6,29.58,NNW,338,0.0,5.0,74,0.00,,---,0.00,VWS V14.00,2013-03-03 11:55:00,
2013-03-03 06:56:00,30.9,23.6,29.58,NNW,338,1.0,5.0,74,0.00,,---,0.00,VWS V14.00,2013-03-03 11:56:00,
2013-03-03 06:58:00,30.9,23.6,29.58,NNW,341,2.0,5.0,74,0.00,,---,0.00,VWS V14.00,2013-03-03 11:58:00,
2013-03-03 06:59:00,30.9,23.6,29.58,NNW,341,2.0,5.0,74,0.00,,---,0.00,VWS V14.00,2013-03-03 11:59:00,
2013-03-03 07:00:00,30.9,23.6,29.58,NNW,341,1.0,1.0,74,0.00,,---,0.00,VWS V14.00,2013-03-03 12:00:00,
2013-03-03 07:01:00,30.9,23.6,29.58,NNW,341,2.0,2.0,74,0.00,,---,0.00,VWS V14.00,2013-03-03 12:01:00,
2013-03-03 07:04:00,30.9,23.6,29.58,NNW,341,0.0,2.0,74,0.00,,---,0.00,VWS V14.00,2013-03-03 12:04:00,
2013-03-03 07:05:00,30.9,23.6,29.58,NW,326,3.0,4.0,74,0.00,,---,0.00,VWS V14.00,2013-03-03 12:05:00,
2013-03-03 07:06:00,30.9,23.6,29.58,NNW,328,0.0,4.0,74,0.00,,---,0.00,VWS V14.00,2013-03-03 12:06:00,
2013-03-03 07:09:00,30.9,23.6,29.58,NNW,342,0.0,4.0,74,0.00,,---,0.00,VWS V14.00,2013-03-03 12:09:00,
2013-03-03 07:10:00,30.9,23.6,29.58,NNW,342,0.0,4.0,74,0.00,,---,0.00,VWS V14.00,2013-03-03 12:10:00,
2013-03-03 07:11:00,30.9,23.6,29.58,NNW,342,2.0,4.0,74,0.00,,---,0.00,VWS V14.00,2013-03-03 12:11:00,
2013-03-03 07:14:00,30.9,23.6,29.58,NNW,342,1.0,4.0,74,0.00,,---,0.00,VWS V14.00,2013-03-03 12:14:00,
2013-03-03 07:15:00,30.9,23.6,29.58,NNW,342,4.0,4.0,74,0.00,,---,0.00,VWS V14.00,2013-03-03 12:15:00,
2013-03-03 07:16:00,30.9,23.6,29.58,NNW,338,4.0,4.0,74,0.00,,---,0.00,VWS V14.00,2013-03-03 12:16:00,
2013-03-03 07:19:00,30.9,23.6,29.58,NNW,339,0.0,4.0,74,0.00,,---,0.00,VWS V14.00,2013-03-03 12:19:00,
2013-03-03 07:20:00,30.9,23.6,29.58,NNW,339,0.0,4.0,74,0.00,,---,0.00,VWS V14.00,2013-03-03 12:20:00,
2013-03-03 07:21:00,30.9,23.6,29.58,NNW,339,0.0,4.0,74,0.00,,---,0.00,VWS V14.00,2013-03-03 12:21:00,
2013-03-03 07:24:00,30.9,23.6,29.58,NNW,341,2.0,4.0,74,0.00,,---,0.00,VWS V14.00,2013-03-03 12:24:00,
2013-03-03 07:25:00,30.9,23.6,29.58,NNW,341,2.0,4.0,74,0.00,,---,0.00,VWS V14.00,2013-03-03 12:25:00,
2013-03-03 07:27:00,30.9,23.6,29.58,WNW,300,0.0,4.0,74,0.00,,---,0.00,VWS V14.00,2013-03-03 12:27:00,
2013-03-03 07:29:00,30.9,23.6,29.58,NW,323,1.0,4.0,74,0.00,,---,0.00,VWS V14.00,2013-03-03 12:29:00,
2013-03-03 07:30:00,30.9,23.6,29.58,NW,323,0.0,1.0,74,0.00,,---,0.00,VWS V14.00,2013-03-03 12:30:00,
2013-03-03 07:32:00,30.9,23.6,29.58,NW,323,2.0,2.0,74,0.00,,---,0.00,VWS V14.00,2013-03-03 12:32:00,
2013-03-03 07:34:00,31.0,23.7,29.58,NNW,344,2.0,5.0,74,0.00,,---,0.00,VWS V14.00,2013-03-03 12:34:00,
2013-03-03 07:35:00,30.9,23.6,29.58,NNW,342,4.0,5.0,74,0.00,,---,0.00,VWS V14.00,2013-03-03 12:35:00,
2013-03-03 07:37:00,30.9,23.6,29.58,NNW,335,1.0,5.0,74,0.00,,---,0.00,VWS V14.00,2013-03-03 12:37:00,
2013-03-03 07:39:00,31.0,23.7,29.58,NNW,335,1.0,5.0,74,0.00,,---,0.00,VWS V14.00,2013-03-03 12:39:00,
2013-03-03 07:40:00,31.0,23.7,29.58,NNW,335,0.0,5.0,74,0.00,,---,0.00,VWS V14.00,2013-03-03 12:40:00,
2013-03-03 07:42:00,31.0,23.7,29.58,NNW,335,1.0,5.0,74,0.00,,---,0.00,VWS V14.00,2013-03-03 12:42:00,
2013-03-03 07:44:00,31.0,23.7,29.58,NNW,335,0.0,2.0,74,0.00,,---,0.00,VWS V14.00,2013-03-03 12:44:00,
2013-03-03 07:45:00,31.0,23.7,29.58,NNW,327,2.0,5.0,74,0.00,,---,0.00,VWS V14.00,2013-03-03 12:45:00,
2013-03-03 07:47:00,31.2,23.9,29.58,NNW,330,1.0,5.0,74,0.00,,---,0.00,VWS V14.00,2013-03-03 12:47:00,
2013-03-03 07:49:00,31.2,23.9,29.58,NNW,330,2.0,5.0,74,0.00,,---,0.00,VWS V14.00,2013-03-03 12:49:00,
2013-03-03 07:50:00,31.2,23.9,29.58,NNW,330,2.0,5.0,74,0.00,,---,0.00,VWS V14.00,2013-03-03 12:50:00,
2013-03-03 07:52:00,31.2,23.9,29.58,NNE,13,2.0,5.0,74,0.00,,---,0.00,VWS V14.00,2013-03-03 12:52:00,
2013-03-03 07:54:00,31.2,23.9,29.58,North,0,2.0,5.0,74,0.00,,---,0.00,VWS V14.00,2013-03-03 12:54:00,
2013-03-03 07:55:00,31.2,23.9,29.58,North,0,1.0,5.0,74,0.00,,---,0.00,VWS V14.00,2013-03-03 12:55:00,
2013-03-03 07:56:00,31.2,23.9,29.58,North,356,0.0,5.0,74,0.00,,---,0.00,VWS V14.00,2013-03-03 12:56:00,
2013-03-03 07:57:00,31.2,23.9,29.58,NNW,331,6.0,6.0,74,0.00,,---,0.00,VWS V14.00,2013-03-03 12:57:00,
2013-03-03 08:00:00,31.2,23.9,29.58,NNW,337,3.0,4.0,74,0.00,,---,0.00,VWS V14.00,2013-03-03 13:00:00,
2013-03-03 08:01:00,31.2,24.2,29.58,NNW,338,1.0,4.0,75,0.00,,---,0.00,VWS V14.00,2013-03-03 13:01:00,
2013-03-03 08:03:00,31.2,24.2,29.58,North,354,1.0,4.0,75,0.00,,---,0.00,VWS V14.00,2013-03-03 13:03:00,
2013-03-03 08:05:00,31.2,24.2,29.58,NW,323,3.0,4.0,75,0.00,,---,0.00,VWS V14.00,2013-03-03 13:05:00,
2013-03-03 08:06:00,31.2,24.5,29.58,NNW,338,3.0,5.0,76,0.00,,---,0.00,VWS V14.00,2013-03-03 13:06:00,
2013-03-03 08:08:00,31.0,24.3,29.58,NNW,340,3.0,5.0,76,0.00,,---,0.00,VWS V14.00,2013-03-03 13:08:00,
2013-03-03 08:10:00,31.0,24.3,29.58,NW,321,2.0,5.0,76,0.00,,---,0.00,VWS V14.00,2013-03-03 13:10:00,
2013-03-03 08:11:00,31.0,24.3,29.58,NNW,338,2.0,6.0,76,0.00,,---,0.00,VWS V14.00,2013-03-03 13:11:00,
2013-03-03 08:13:00,31.0,24.6,29.58,NNW,338,1.0,6.0,77,0.00,,---,0.00,VWS V14.00,2013-03-03 13:13:00,
2013-03-03 08:15:00,31.0,24.6,29.58,NW,326,0.0,2.0,77,0.00,,---,0.00,VWS V14.00,2013-03-03 13:15:00,
2013-03-03 08:16:00,31.0,24.6,29.58,NW,326,1.0,2.0,77,0.00,,---,0.00,VWS V14.00,2013-03-03 13:16:00,
2013-03-03 08:18:00,31.0,25.0,29.58,NW,326,1.0,2.0,78,0.00,,---,0.00,VWS V14.00,2013-03-03 13:18:00,
2013-03-03 08:20:00,31.0,25.0,29.58,NNW,336,2.0,4.0,78,0.00,,---,0.00,VWS V14.00,2013-03-03 13:20:00,
2013-03-03 08:21:00,31.0,25.0,29.58,NNW,338,3.0,5.0,78,0.00,,---,0.00,VWS V14.00,2013-03-03 13:21:00,
2013-03-03 08:23:00,31.0,25.0,29.58,NNW,334,3.0,5.0,78,0.00,,---,0.00,VWS V14.00,2013-03-03 13:23:00,
2013-03-03 08:25:00,31.0,25.0,29.58,North,349,0.0,5.0,78,0.00,,---,0.00,VWS V14.00,2013-03-03 13:25:00,
2013-03-03 08:26:00,31.0,25.3,29.58,North,351,3.0,5.0,79,0.00,,---,0.00,VWS V14.00,2013-03-03 13:26:00,
2013-03-03 08:28:00,31.0,25.0,29.58,NNW,328,1.0,5.0,78,0.00,,---,0.00,VWS V14.00,2013-03-03 13:28:00,
2013-03-03 08:30:00,31.0,25.3,29.58,NNW,329,2.0,3.0,79,0.00,,---,0.00,VWS V14.00,2013-03-03 13:30:00,
2013-03-03 08:31:00,31.0,25.3,29.58,NNW,329,0.0,3.0,79,0.00,,---,0.00,VWS V14.00,2013-03-03 13:31:00,
2013-03-03 08:33:00,31.2,25.5,29.58,NNW,329,0.0,3.0,79,0.00,,---,0.00,VWS V14.00,2013-03-03 13:33:00,
2013-03-03 08:35:00,31.2,25.5,29.58,NNW,329,2.0,3.0,79,0.00,,---,0.00,VWS V14.00,2013-03-03 13:35:00,
2013-03-03 08:36:00,31.2,25.5,29.58,NNW,329,0.0,3.0,79,0.00,,---,0.00,VWS V14.00,2013-03-03 13:36:00,
2013-03-03 08:38:00,31.3,25.6,29.58,NNW,329,1.0,3.0,79,0.00,,---,0.00,VWS V14.00,2013-03-03 13:38:00,
2013-03-03 08:40:00,31.5,26.0,29.58,NNW,329,1.0,3.0,80,0.00,,---,0.00,VWS V14.00,2013-03-03 13:40:00,
2013-03-03 08:41:00,31.5,26.0,29.58,NNW,329,3.0,4.0,80,0.00,,---,0.00,VWS V14.00,2013-03-03 13:41:00,
2013-03-03 08:42:00,31.5,25.8,29.58,NNW,329,0.0,4.0,79,0.00,,---,0.00,VWS V14.00,2013-03-03 13:42:00,
2013-03-03 08:43:00,31.6,25.9,29.58,NNW,329,0.0,4.0,79,0.00,,---,0.00,VWS V14.00,2013-03-03 13:43:00,
2013-03-03 08:45:00,31.6,25.9,29.58,NNW,334,0.0,2.0,79,0.00,,---,0.00,VWS V14.00,2013-03-03 13:45:00,
2013-03-03 08:46:00,31.6,25.9,29.58,NW,323,1.0,2.0,79,0.00,,---,0.00,VWS V14.00,2013-03-03 13:46:00,
2013-03-03 08:47:00,31.6,25.9,29.58,NW,323,1.0,2.0,79,0.00,,---,0.00,VWS V14.00,2013-03-03 13:47:00,
2013-03-03 08:48:00,31.6,25.9,29.58,NW,323,1.0,2.0,79,0.00,,---,0.00,VWS V14.00,2013-03-03 13:48:00,
2013-03-03 08:51:00,31.6,25.9,29.58,NNW,330,3.0,3.0,79,0.00,,---,0.00,VWS V14.00,2013-03-03 13:51:00,
2013-03-03 08:52:00,31.6,25.9,29.58,NNW,347,2.0,4.0,79,0.00,,---,0.00,VWS V14.00,2013-03-03 13:52:00,
2013-03-03 08:53:00,31.6,25.9,29.58,North,354,1.0,4.0,79,0.00,,---,0.00,VWS V14.00,2013-03-03 13:53:00,
2013-03-03 08:56:00,31.6,25.5,29.58,NNW,340,2.0,5.0,78,0.00,,---,0.00,VWS V14.00,2013-03-03 13:56:00,
2013-03-03 08:57:00,31.6,25.5,29.58,NNW,340,0.0,5.0,78,0.00,,---,0.00,VWS V14.00,2013-03-03 13:57:00,
2013-03-03 08:58:00,31.6,25.5,29.58,NNW,343,3.0,5.0,78,0.00,,---,0.00,VWS V14.00,2013-03-03 13:58:00,
2013-03-03 09:00:00,33.8,26.4,29.56,NNW,328,7.0,7.0,74,0.00,,---,0.00,VWS V14.00,2013-03-03 14:00:00,
2013-03-03 09:01:00,31.8,25.7,29.58,North,350,2.0,5.0,78,0.00,,---,0.00,VWS V14.00,2013-03-03 14:01:00,
2013-03-03 09:02:00,31.8,25.7,29.58,North,352,2.0,5.0,78,0.00,,---,0.00,VWS V14.00,2013-03-03 14:02:00,
2013-03-03 09:03:00,31.8,25.7,29.58,North,352,2.0,5.0,78,0.00,,---,0.00,VWS V14.00,2013-03-03 14:03:00,
2013-03-03 09:06:00,31.9,25.8,29.58,WNW,296,0.0,5.0,78,0.00,,---,0.00,VWS V14.00,2013-03-03 14:06:00,
2013-03-03 09:07:00,32.1,26.0,29.58,WNW,296,0.0,5.0,78,0.00,,---,0.00,VWS V14.00,2013-03-03 14:07:00,
2013-03-03 09:08:00,32.1,26.0,29.58,WSW,255,3.0,5.0,78,0.00,,---,0.00,VWS V14.00,2013-03-03 14:08:00,
2013-03-03 09:11:00,32.2,26.1,29.58,NNW,338,2.0,5.0,78,0.00,,---,0.00,VWS V14.00,2013-03-03 14:11:00,
2013-03-03 09:12:00,32.2,25.8,29.58,NNW,338,0.0,5.0,77,0.00,,---,0.00,VWS V14.00,2013-03-03 14:12:00,
2013-03-03 09:13:00,32.2,25.8,29.58,NNW,332,0.0,5.0,77,0.00,,---,0.00,VWS V14.00,2013-03-03 14:13:00,
2013-03-03 09:15:00,33.5,26.4,29.56,North,359,2.0,7.0,75,0.00,,---,0.00,VWS V14.00,2013-03-03 14:15:00,
2013-03-03 09:17:00,32.4,26.0,29.58,NNW,327,1.0,5.0,77,0.00,,---,0.00,VWS V14.00,2013-03-03 14:17:00,
2013-03-03 09:18:00,32.4,26.0,29.58,NNW,327,1.0,5.0,77,0.00,,---,0.00,VWS V14.00,2013-03-03 14:18:00,
2013-03-03 09:22:00,32.4,26.0,29.58,WNW,299,0.0,5.0,77,0.00,,---,0.00,VWS V14.00,2013-03-03 14:22:00,
2013-03-03 09:23:00,32.5,26.1,29.58,West,259,1.0,5.0,77,0.00,,---,0.00,VWS V14.00,2013-03-03 14:23:00,
2013-03-03 09:27:00,32.8,26.4,29.58,NNW,336,0.0,5.0,77,0.00,,---,0.00,VWS V14.00,2013-03-03 14:27:00,
2013-03-03 09:28:00,32.8,26.1,29.57,West,259,2.0,5.0,76,0.00,,---,0.00,VWS V14.00,2013-03-03 14:28:00,
2013-03-03 09:30:00,33.4,26.7,29.56,NW,321,2.0,4.0,76,0.00,,---,0.00,VWS V14.00,2013-03-03 14:30:00,
2013-03-03 09:32:00,32.8,25.8,29.57,North,349,0.0,5.0,75,0.00,,---,0.00,VWS V14.00,2013-03-03 14:32:00,
2013-03-03 09:33:00,32.8,25.8,29.57,NW,326,3.0,5.0,75,0.00,,---,0.00,VWS V14.00,2013-03-03 14:33:00,
2013-03-03 09:37:00,32.8,25.8,29.57,NNW,335,3.0,6.0,75,0.00,,---,0.00,VWS V14.00,2013-03-03 14:37:00,
2013-03-03 09:38:00,32.8,25.8,29.57,NNW,335,2.0,6.0,75,0.00,,---,0.00,VWS V14.00,2013-03-03 14:38:00,
2013-03-03 09:42:00,33.1,26.0,29.57,North,355,2.0,7.0,75,0.00,,---,0.00,VWS V14.00,2013-03-03 14:42:00,
2013-03-03 09:43:00,33.1,26.0,29.57,North,355,0.0,7.0,75,0.00,,---,0.00,VWS V14.00,2013-03-03 14:43:00,
2013-03-03 09:45:00,34.1,27.0,29.56,North,349,0.0,4.0,75,0.00,,---,0.00,VWS V14.00,2013-03-03 14:45:00,
2013-03-03 09:47:00,33.7,26.6,29.56,North,355,1.0,2.0,75,0.00,,---,0.00,VWS V14.00,2013-03-03 14:47:00,
2013-03-03 09:48:00,33.7,26.6,29.56,North,355,0.0,2.0,75,0.00,,---,0.00,VWS V14.00,2013-03-03 14:48:00,
2013-03-03 09:52:00,33.8,26.1,29.56,North,0,0.0,4.0,73,0.00,,---,0.00,VWS V14.00,2013-03-03 14:52:00,
2013-03-03 09:53:00,34.0,26.6,29.56,North,352,3.0,4.0,74,0.00,,---,0.00,VWS V14.00,2013-03-03 14:53:00,
2013-03-03 09:57:00,33.8,26.4,29.56,North,6,3.0,4.0,74,0.00,,---,0.00,VWS V14.00,2013-03-03 14:57:00,
2013-03-03 09:58:00,33.8,26.4,29.56,NNW,339,2.0,4.0,74,0.00,,---,0.00,VWS V14.00,2013-03-03 14:58:00,
2013-03-03 10:00:00,34.3,26.9,29.56,NNW,335,2.0,5.0,74,0.00,,---,0.00,VWS V14.00,2013-03-03 15:00:00,
2013-03-03 10:02:00,33.7,26.3,29.56,NE,37,1.0,7.0,74,0.00,,---,0.00,VWS V14.00,2013-03-03 15:02:00,
2013-03-03 10:03:00,33.7,26.3,29.56,NNE,20,2.0,7.0,74,0.00,,---,0.00,VWS V14.00,2013-03-03 15:03:00,
2013-03-03 10:04:00,33.7,26.3,29.56,NNW,335,4.0,7.0,74,0.00,,---,0.00,VWS V14.00,2013-03-03 15:04:00,
2013-03-03 10:07:00,33.5,26.4,29.56,NNW,336,0.0,7.0,75,0.00,,---,0.00,VWS V14.00,2013-03-03 15:07:00,
2013-03-03 10:08:00,33.5,26.4,29.56,NNW,336,0.0,7.0,75,0.00,,---,0.00,VWS V14.00,2013-03-03 15:08:00,
2013-03-03 10:09:00,33.5,26.4,29.56,NNE,27,3.0,7.0,75,0.00,,---,0.00,VWS V14.00,2013-03-03 15:09:00,
2013-03-03 10:13:00,33.5,26.8,29.56,NNW,330,3.0,7.0,76,0.00,,---,0.00,VWS V14.00,2013-03-03 15:13:00,
2013-03-03 10:14:00,33.5,26.8,29.56,North,359,4.0,7.0,76,0.00,,---,0.00,VWS V14.00,2013-03-03 15:14:00,
2013-03-03 10:15:00,34.7,27.3,29.55,North,352,1.0,5.0,74,0.00,,---,0.00,VWS V14.00,2013-03-03 15:15:00,
2013-03-03 10:18:00,33.5,26.8,29.56,North,357,2.0,4.0,76,0.00,,---,0.00,VWS V14.00,2013-03-03 15:18:00,
2013-03-03 10:19:00,33.5,26.8,29.56,North,357,3.0,4.0,76,0.00,,---,0.00,VWS V14.00,2013-03-03 15:19:00,
2013-03-03 10:23:00,33.4,27.0,29.56,NW,319,0.0,4.0,77,0.00,,---,0.00,VWS V14.00,2013-03-03 15:23:00,
2013-03-03 10:24:00,33.4,26.7,29.56,NNW,327,1.0,4.0,76,0.00,,---,0.00,VWS V14.00,2013-03-03 15:24:00,
2013-03-03 10:28:00,33.4,26.7,29.56,NW,321,2.0,4.0,76,0.00,,---,0.00,VWS V14.00,2013-03-03 15:28:00,
2013-03-03 10:29:00,33.4,26.7,29.56,NW,321,2.0,4.0,76,0.00,,---,0.00,VWS V14.00,2013-03-03 15:29:00,
2013-03-03 10:30:00,35.5,28.4,29.55,NNW,342,3.0,7.0,75,0.00,,---,0.00,VWS V14.00,2013-03-03 15:30:00,
2013-03-03 10:33:00,33.5,26.8,29.56,NNW,342,0.0,3.0,76,0.00,,---,0.00,VWS V14.00,2013-03-03 15:33:00,
2013-03-03 10:34:00,33.7,27.0,29.56,NNW,342,2.0,4.0,76,0.00,,---,0.00,VWS V14.00,2013-03-03 15:34:00,
2013-03-03 10:38:00,33.8,26.7,29.56,North,349,0.0,4.0,75,0.00,,---,0.00,VWS V14.00,2013-03-03 15:38:00,
2013-03-03 10:39:00,34.0,26.9,29.56,North,349,0.0,4.0,75,0.00,,---,0.00,VWS V14.00,2013-03-03 15:39:00,
2013-03-03 10:43:00,34.0,26.9,29.56,North,349,0.0,4.0,75,0.00,,---,0.00,VWS V14.00,2013-03-03 15:43:00,
2013-03-03 10:44:00,34.1,27.0,29.56,North,349,1.0,4.0,75,0.00,,---,0.00,VWS V14.00,2013-03-03 15:44:00,
2013-03-03 10:45:00,35.2,28.1,29.55,NNW,336,3.0,7.0,75,0.00,,---,0.00,VWS V14.00,2013-03-03 15:45:00,
2013-03-03 10:48:00,34.3,26.9,29.56,NW,326,0.0,4.0,74,0.00,,---,0.00,VWS V14.00,2013-03-03 15:48:00,
2013-03-03 10:49:00,34.4,27.0,29.56,NW,326,3.0,4.0,74,0.00,,---,0.00,VWS V14.00,2013-03-03 15:49:00,
2013-03-03 10:53:00,34.1,26.7,29.56,NE,54,0.0,4.0,74,0.00,,---,0.00,VWS V14.00,2013-03-03 15:53:00,
2013-03-03 10:54:00,34.1,26.7,29.56,NE,43,0.0,4.0,74,0.00,,---,0.00,VWS V14.00,2013-03-03 15:54:00,
2013-03-03 10:58:00,34.3,26.9,29.56,NNW,333,2.0,5.0,74,0.00,,---,0.00,VWS V14.00,2013-03-03 15:58:00,
2013-03-03 10:59:00,34.3,26.9,29.56,NNW,335,1.0,1.0,74,0.00,,---,0.00,VWS V14.00,2013-03-03 15:59:00,
2013-03-03 11:00:00,34.3,26.9,29.56,NNW,335,1.0,1.0,74,0.00,,---,0.00,VWS V14.00,2013-03-03 16:00:00,
2013-03-03 11:03:00,34.6,27.2,29.56,NNW,334,0.0,3.0,74,0.00,,---,0.00,VWS V14.00,2013-03-03 16:03:00,
2013-03-03 11:04:00,34.6,27.2,29.56,North,359,0.0,3.0,74,0.00,,---,0.00,VWS V14.00,2013-03-03 16:04:00,
2013-03-03 11:05:00,34.6,27.2,29.56,North,359,1.0,3.0,74,0.00,,---,0.00,VWS V14.00,2013-03-03 16:05:00,
2013-03-03 11:09:00,34.7,27.3,29.56,NNW,347,0.0,4.0,74,0.00,,---,0.00,VWS V14.00,2013-03-03 16:09:00,
2013-03-03 11:10:00,34.7,27.3,29.56,West,268,1.0,4.0,74,0.00,,---,0.00,VWS V14.00,2013-03-03 16:10:00,
2013-03-03 11:14:00,34.7,27.3,29.55,North,352,1.0,5.0,74,0.00,,---,0.00,VWS V14.00,2013-03-03 16:14:00,
2013-03-03 11:15:00,34.9,27.5,29.55,SW,229,1.0,3.0,74,0.00,,---,0.00,VWS V14.00,2013-03-03 16:15:00,
2013-03-03 11:19:00,35.5,28.0,29.55,NNW,340,2.0,5.0,74,0.00,,---,0.00,VWS V14.00,2013-03-03 16:19:00,
2013-03-03 11:20:00,35.5,28.0,29.55,NNW,340,2.0,5.0,74,0.00,,---,0.00,VWS V14.00,2013-03-03 16:20:00,
2013-03-03 11:24:00,35.5,27.7,29.55,North,354,2.0,7.0,73,0.00,,---,0.00,VWS V14.00,2013-03-03 16:24:00,
2013-03-03 11:25:00,35.5,27.7,29.55,North,355,1.0,7.0,73,0.00,,---,0.00,VWS V14.00,2013-03-03 16:25:00,
2013-03-03 11:30:00,35.5,28.4,29.55,NNW,341,0.0,4.0,75,0.00,,---,0.00,VWS V14.00,2013-03-03 16:30:00,
2013-03-03 11:31:00,35.5,28.0,29.55,NNW,339,4.0,7.0,74,0.00,,---,0.00,VWS V14.00,2013-03-03 16:31:00,
2013-03-03 11:35:00,35.0,27.9,29.55,NNW,348,2.0,7.0,75,0.00,,---,0.00,VWS V14.00,2013-03-03 16:35:00,
2013-03-03 11:36:00,35.0,27.9,29.55,NNW,345,1.0,7.0,75,0.00,,---,0.00,VWS V14.00,2013-03-03 16:36:00,
2013-03-03 11:40:00,35.0,28.2,29.55,NNW,338,2.0,7.0,76,0.00,,---,0.00,VWS V14.00,2013-03-03 16:40:00,
2013-03-03 11:41:00,35.0,27.9,29.55,NNW,338,2.0,7.0,75,0.00,,---,0.00,VWS V14.00,2013-03-03 16:41:00,
2013-03-03 11:45:00,35.2,28.1,29.55,North,1,2.0,3.0,75,0.00,,---,0.00,VWS V14.00,2013-03-03 16:45:00,
2013-03-03 11:46:00,35.2,28.1,29.55,NNW,342,1.0,3.0,75,0.00,,---,0.00,VWS V14.00,2013-03-03 16:46:00,
2013-03-03 11:50:00,35.3,27.9,29.55,North,354,1.0,4.0,74,0.00,,---,0.00,VWS V14.00,2013-03-03 16:50:00,
2013-03-03 11:51:00,35.3,27.9,29.55,NNW,337,5.0,6.0,74,0.00,,---,0.00,VWS V14.00,2013-03-03 16:51:00,
2013-03-03 11:55:00,35.6,28.1,29.55,North,349,1.0,6.0,74,0.00,,---,0.00,VWS V14.00,2013-03-03 16:55:00,
2013-03-03 11:56:00,35.6,27.8,29.55,North,1,2.0,10.0,73,0.00,,---,0.00,VWS V14.00,2013-03-03 16:56:00,
2013-03-03 12:00:00,35.8,27.7,29.54,NNW,339,0.0,5.0,72,0.00,,---,0.00,VWS V14.00,2013-03-03 17:00:00,
2013-03-03 12:01:00,35.8,27.7,29.54,NNW,338,1.0,5.0,72,0.00,,---,0.00,VWS V14.00,2013-03-03 17:01:00,
2013-03-03 12:05:00,36.2,28.1,29.54,WSW,243,3.0,6.0,72,0.00,,---,0.00,VWS V14.00,2013-03-03 17:05:00,
2013-03-03 12:06:00,36.3,28.1,29.54,West,279,1.0,6.0,72,0.00,,---,0.00,VWS V14.00,2013-03-03 17:06:00,
2013-03-03 12:10:00,36.8,28.0,29.54,West,272,0.0,6.0,70,0.00,,---,0.00,VWS V14.00,2013-03-03 17:10:00,
2013-03-03 12:11:00,36.8,28.3,29.54,West,272,1.0,6.0,71,0.00,,---,0.00,VWS V14.00,2013-03-03 17:11:00,
2013-03-03 12:12:00,36.8,28.3,29.54,West,276,1.0,6.0,71,0.00,,---,0.00,VWS V14.00,2013-03-03 17:12:00,
2013-03-03 12:15:00,36.9,28.0,29.53,NW,318,3.0,4.0,70,0.00,,---,0.00,VWS V14.00,2013-03-03 17:15:00,
2013-03-03 12:16:00,36.9,28.0,29.53,NNW,339,4.0,4.0,70,0.00,,---,0.00,VWS V14.00,2013-03-03 17:16:00,
2013-03-03 12:20:00,37.2,28.0,29.53,WSW,249,0.0,4.0,69,0.00,,---,0.00,VWS V14.00,2013-03-03 17:20:00,
2013-03-03 12:21:00,37.2,28.0,29.53,WSW,250,2.0,4.0,69,0.00,,---,0.00,VWS V14.00,2013-03-03 17:21:00,
2013-03-03 12:22:00,37.3,28.1,29.53,WSW,250,1.0,4.0,69,0.00,,---,0.00,VWS V14.00,2013-03-03 17:22:00,
2013-03-03 12:25:00,37.5,27.9,29.53,NNW,341,2.0,5.0,68,0.00,,---,0.00,VWS V14.00,2013-03-03 17:25:00,
2013-03-03 12:26:00,37.3,27.7,29.53,NNW,341,0.0,5.0,68,0.00,,---,0.00,VWS V14.00,2013-03-03 17:26:00,
2013-03-03 12:27:00,37.3,27.7,29.53,NNW,341,1.0,5.0,68,0.00,,---,0.00,VWS V14.00,2013-03-03 17:27:00,
2013-03-03 12:30:00,37.3,27.7,29.53,NNW,338,1.0,5.0,68,0.00,,---,0.00,VWS V14.00,2013-03-03 17:30:00,
2013-03-03 12:40:00,37.3,27.7,29.53,NNW,338,1.0,5.0,68,0.00,,---,0.00,VWS V14.00,2013-03-03 17:40:00,
2013-03-03 12:45:00,37.8,27.8,29.53,North,355,1.0,4.0,67,0.00,,---,0.00,VWS V14.00,2013-03-03 17:45:00,
2013-03-03 12:46:00,37.8,27.8,29.53,North,356,1.0,4.0,67,0.00,,---,0.00,VWS V14.00,2013-03-03 17:46:00,
2013-03-03 12:50:00,38.0,28.0,29.53,North,358,0.0,4.0,67,0.00,,---,0.00,VWS V14.00,2013-03-03 17:50:00,
2013-03-03 12:51:00,38.0,28.0,29.53,West,271,2.0,4.0,67,0.00,,---,0.00,VWS V14.00,2013-03-03 17:51:00,
2013-03-03 12:55:00,38.0,27.7,29.53,NNW,334,0.0,6.0,66,0.00,,---,0.00,VWS V14.00,2013-03-03 17:55:00,
2013-03-03 12:56:00,38.0,27.7,29.53,NNW,334,0.0,6.0,66,0.00,,---,0.00,VWS V14.00,2013-03-03 17:56:00,
2013-03-03 13:00:00,37.9,27.6,29.52,North,356,3.0,4.0,66,0.00,,---,0.00,VWS V14.00,2013-03-03 18:00:00,
2013-03-03 13:01:00,37.9,27.9,29.52,North,355,3.0,4.0,67,0.00,,---,0.00,VWS V14.00,2013-03-03 18:01:00,
2013-03-03 13:05:00,37.8,27.8,29.52,North,355,2.0,4.0,67,0.00,,---,0.00,VWS V14.00,2013-03-03 18:05:00,
2013-03-03 13:06:00,37.8,27.8,29.52,NNW,340,0.0,4.0,67,0.00,,---,0.00,VWS V14.00,2013-03-03 18:06:00,
2013-03-03 13:10:00,38.2,27.9,29.52,WSW,255,0.0,4.0,66,0.00,,---,0.00,VWS V14.00,2013-03-03 18:10:00,
2013-03-03 13:11:00,38.3,28.0,29.52,West,265,3.0,6.0,66,0.00,,---,0.00,VWS V14.00,2013-03-03 18:11:00,
2013-03-03 13:12:00,38.3,27.6,29.52,West,270,0.0,6.0,65,0.00,,---,0.00,VWS V14.00,2013-03-03 18:12:00,
2013-03-03 13:15:00,38.6,27.9,29.51,NNW,332,2.0,5.0,65,0.00,,---,0.00,VWS V14.00,2013-03-03 18:15:00,
2013-03-03 13:16:00,38.6,27.9,29.51,NNW,332,2.0,5.0,65,0.00,,---,0.00,VWS V14.00,2013-03-03 18:16:00,
2013-03-03 13:17:00,38.6,27.9,29.51,NNW,332,1.0,5.0,65,0.00,,---,0.00,VWS V14.00,2013-03-03 18:17:00,
2013-03-03 13:20:00,38.8,28.1,29.51,NNW,336,1.0,5.0,65,0.00,,---,0.00,VWS V14.00,2013-03-03 18:20:00,
2013-03-03 13:21:00,38.8,28.1,29.51,NNW,331,4.0,5.0,65,0.00,,---,0.00,VWS V14.00,2013-03-03 18:21:00,
2013-03-03 13:22:00,38.8,28.1,29.51,NNW,344,3.0,6.0,65,0.00,,---,0.00,VWS V14.00,2013-03-03 18:22:00,
2013-03-03 13:25:00,38.8,28.4,29.51,West,261,2.0,6.0,66,0.00,,---,0.00,VWS V14.00,2013-03-03 18:25:00,
2013-03-03 13:26:00,38.8,28.4,29.51,West,261,2.0,6.0,66,0.00,,---,0.00,VWS V14.00,2013-03-03 18:26:00,
2013-03-03 13:27:00,38.9,28.5,29.51,SSW,193,0.0,6.0,66,0.00,,---,0.00,VWS V14.00,2013-03-03 18:27:00,
2013-03-03 13:30:00,38.8,28.4,29.51,North,351,3.0,7.0,66,0.00,,---,0.00,VWS V14.00,2013-03-03 18:30:00,
2013-03-03 13:31:00,39.2,28.4,29.51,NNW,334,0.0,4.0,65,0.00,,---,0.00,VWS V14.00,2013-03-03 18:31:00,
2013-03-03 13:32:00,39.3,28.5,29.51,NNE,26,0.0,4.0,65,0.00,,---,0.00,VWS V14.00,2013-03-03 18:32:00,
2013-03-03 13:36:00,39.5,28.7,29.51,North,1,1.0,4.0,65,0.00,,---,0.00,VWS V14.00,2013-03-03 18:36:00,
2013-03-03 13:37:00,39.5,28.4,29.51,North,0,3.0,4.0,64,0.00,,---,0.00,VWS V14.00,2013-03-03 18:37:00,
2013-03-03 13:41:00,39.3,28.2,29.51,NW,323,0.0,4.0,64,0.00,,---,0.00,VWS V14.00,2013-03-03 18:41:00,
2013-03-03 13:42:00,39.3,28.2,29.51,SSW,213,0.0,4.0,64,0.00,,---,0.00,VWS V14.00,2013-03-03 18:42:00,
2013-03-03 13:45:00,38.5,29.2,29.51,North,351,3.0,9.0,69,0.00,,---,0.00,VWS V14.00,2013-03-03 18:45:00,
2013-03-03 13:46:00,39.5,28.4,29.51,NNW,329,2.0,3.0,64,0.00,,---,0.00,VWS V14.00,2013-03-03 18:46:00,
2013-03-03 13:47:00,39.5,28.0,29.51,NNW,336,5.0,6.0,63,0.00,,---,0.00,VWS V14.00,2013-03-03 18:47:00,
2013-03-03 13:51:00,39.2,28.1,29.51,North,354,2.0,6.0,64,0.00,,---,0.00,VWS V14.00,2013-03-03 18:51:00,
2013-03-03 13:52:00,39.2,28.1,29.51,North,355,0.0,6.0,64,0.00,,---,0.00,VWS V14.00,2013-03-03 18:52:00,
2013-03-03 13:56:00,39.1,27.6,29.51,NW,319,0.0,6.0,63,0.00,,---,0.00,VWS V14.00,2013-03-03 18:56:00,
2013-03-03 13:57:00,39.1,28.0,29.51,NW,324,3.0,6.0,64,0.00,,---,0.00,VWS V14.00,2013-03-03 18:57:00,
2013-03-03 14:00:00,38.2,28.9,29.51,NNW,334,2.0,5.0,69,0.00,,---,0.00,VWS V14.00,2013-03-03 19:00:00,
2013-03-03 14:01:00,38.9,27.8,29.51,North,350,0.0,5.0,64,0.00,,---,0.00,VWS V14.00,2013-03-03 19:01:00,
2013-03-03 14:02:00,38.9,27.8,29.51,North,350,2.0,5.0,64,0.00,,---,0.00,VWS V14.00,2013-03-03 19:02:00,
2013-03-03 14:03:00,39.1,28.0,29.51,North,350,2.0,5.0,64,0.00,,---,0.00,VWS V14.00,2013-03-03 19:03:00,
2013-03-03 14:06:00,39.1,28.0,29.51,North,350,3.0,5.0,64,0.00,,---,0.00,VWS V14.00,2013-03-03 19:06:00,
2013-03-03 14:07:00,39.2,28.1,29.51,North,350,0.0,5.0,64,0.00,,---,0.00,VWS V14.00,2013-03-03 19:07:00,
2013-03-03 14:08:00,39.2,28.4,29.51,North,350,1.0,5.0,65,0.00,,---,0.00,VWS V14.00,2013-03-03 19:08:00,
2013-03-03 14:11:00,39.3,28.5,29.51,North,350,1.0,5.0,65,0.00,,---,0.00,VWS V14.00,2013-03-03 19:11:00,
2013-03-03 14:12:00,39.3,28.5,29.51,North,350,1.0,5.0,65,0.00,,---,0.00,VWS V14.00,2013-03-03 19:12:00,
2013-03-03 14:13:00,39.3,28.5,29.51,North,350,2.0,5.0,65,0.00,,---,0.00,VWS V14.00,2013-03-03 19:13:00,
2013-03-03 14:15:00,38.5,28.9,29.51,NNW,338,3.0,5.0,68,0.00,,---,0.00,VWS V14.00,2013-03-03 19:15:00,
2013-03-03 14:16:00,39.3,28.5,29.51,NW,326,1.0,7.0,65,0.00,,---,0.00,VWS V14.00,2013-03-03 19:16:00,
2013-03-03 14:17:00,39.2,28.4,29.51,NNW,335,3.0,7.0,65,0.00,,---,0.00,VWS V14.00,2013-03-03 19:17:00,
2013-03-03 14:18:00,39.2,28.4,29.51,NNW,334,2.0,7.0,65,0.00,,---,0.00,VWS V14.00,2013-03-03 19:18:00,
2013-03-03 14:21:00,39.1,28.3,29.51,NNW,343,1.0,7.0,65,0.00,,---,0.00,VWS V14.00,2013-03-03 19:21:00,
2013-03-03 14:22:00,39.1,28.7,29.51,North,359,2.0,7.0,66,0.00,,---,0.00,VWS V14.00,2013-03-03 19:22:00,
2013-03-03 14:23:00,39.1,28.7,29.51,North,355,2.0,7.0,66,0.00,,---,0.00,VWS V14.00,2013-03-03 19:23:00,
2013-03-03 14:26:00,38.9,28.1,29.51,NW,323,2.0,7.0,65,0.00,,---,0.00,VWS V14.00,2013-03-03 19:26:00,
2013-03-03 14:27:00,38.9,28.1,29.51,NNW,346,1.0,7.0,65,0.00,,---,0.00,VWS V14.00,2013-03-03 19:27:00,
2013-03-03 14:28:00,38.9,28.1,29.51,NNW,346,2.0,7.0,65,0.00,,---,0.00,VWS V14.00,2013-03-03 19:28:00,
2013-03-03 14:30:00,38.2,28.2,29.50,NNW,339,3.0,6.0,67,0.00,,---,0.00,VWS V14.00,2013-03-03 19:30:00,
2013-03-03 14:31:00,38.8,28.8,29.51,NNW,330,6.0,9.0,67,0.00,,---,0.00,VWS V14.00,2013-03-03 19:31:00,
2013-03-03 14:32:00,38.8,28.8,29.51,NNW,330,4.0,9.0,67,0.00,,---,0.00,VWS V14.00,2013-03-03 19:32:00,
2013-03-03 14:33:00,38.8,28.8,29.51,NNW,329,4.0,9.0,67,0.00,,---,0.00,VWS V14.00,2013-03-03 19:33:00,
2013-03-03 14:34:00,38.6,28.6,29.51,NNW,328,2.0,9.0,67,0.00,,---,0.00,VWS V14.00,2013-03-03 19:34:00,
2013-03-03 14:36:00,38.5,28.9,29.51,NNW,327,2.0,9.0,68,0.00,,---,0.00,VWS V14.00,2013-03-03 19:36:00,
2013-03-03 14:37:00,38.5,28.9,29.51,North,350,5.0,9.0,68,0.00,,---,0.00,VWS V14.00,2013-03-03 19:37:00,
2013-03-03 14:38:00,38.5,29.2,29.51,North,1,1.0,9.0,69,0.00,,---,0.00,VWS V14.00,2013-03-03 19:38:00,
2013-03-03 14:39:00,38.5,29.2,29.51,North,8,0.0,9.0,69,0.00,,---,0.00,VWS V14.00,2013-03-03 19:39:00,
2013-03-03 14:41:00,38.5,29.2,29.51,North,8,3.0,9.0,69,0.00,,---,0.00,VWS V14.00,2013-03-03 19:41:00,
2013-03-03 14:42:00,38.6,29.3,29.51,NE,40,0.0,9.0,69,0.00,,---,0.00,VWS V14.00,2013-03-03 19:42:00,
2013-03-03 14:43:00,38.6,29.3,29.51,NNW,333,2.0,9.0,69,0.00,,---,0.00,VWS V14.00,2013-03-03 19:43:00,
2013-03-03 14:44:00,38.5,29.2,29.51,North,353,4.0,9.0,69,0.00,,---,0.00,VWS V14.00,2013-03-03 19:44:00,
2013-03-03 14:45:00,38.5,28.1,29.50,West,272,0.0,4.0,66,0.00,,---,0.00,VWS V14.00,2013-03-03 19:45:00,
2013-03-03 14:47:00,38.3,29.0,29.51,North,352,1.0,5.0,69,0.00,,---,0.00,VWS V14.00,2013-03-03 19:47:00,
2013-03-03 14:48:00,38.3,29.4,29.51,North,352,0.0,5.0,70,0.00,,---,0.00,VWS V14.00,2013-03-03 19:48:00,
2013-03-03 14:49:00,38.3,29.4,29.51,North,352,1.0,5.0,70,0.00,,---,0.00,VWS V14.00,2013-03-03 19:49:00,
2013-03-03 14:52:00,38.3,29.4,29.51,North,352,2.0,5.0,70,0.00,,---,0.00,VWS V14.00,2013-03-03 19:52:00,
2013-03-03 14:53:00,38.3,29.4,29.51,North,1,1.0,5.0,70,0.00,,---,0.00,VWS V14.00,2013-03-03 19:53:00,
2013-03-03 14:54:00,38.3,29.4,29.51,North,1,0.0,5.0,70,0.00,,---,0.00,VWS V14.00,2013-03-03 19:54:00,
2013-03-03 14:57:00,38.3,29.4,29.51,NNW,337,4.0,5.0,70,0.00,,---,0.00,VWS V14.00,2013-03-03 19:57:00,
2013-03-03 14:58:00,38.2,28.9,29.51,North,350,1.0,5.0,69,0.00,,---,0.00,VWS V14.00,2013-03-03 19:58:00,
2013-03-03 14:59:00,38.2,28.9,29.51,NNW,334,2.0,5.0,69,0.00,,---,0.00,VWS V14.00,2013-03-03 19:59:00,
2013-03-03 15:00:00,38.5,29.6,29.50,WNW,284,2.0,5.0,70,0.00,,---,0.00,VWS V14.00,2013-03-03 20:00:00,
2013-03-03 15:02:00,38.0,28.8,29.51,NNW,337,0.0,3.0,69,0.00,,---,0.00,VWS V14.00,2013-03-03 20:02:00,
2013-03-03 15:03:00,38.0,29.1,29.51,NW,323,0.0,3.0,70,0.00,,---,0.00,VWS V14.00,2013-03-03 20:03:00,
2013-03-03 15:04:00,38.2,29.3,29.51,NW,323,1.0,3.0,70,0.00,,---,0.00,VWS V14.00,2013-03-03 20:04:00,
2013-03-03 15:07:00,38.3,29.0,29.51,NW,323,1.0,3.0,69,0.00,,---,0.00,VWS V14.00,2013-03-03 20:07:00,
2013-03-03 15:08:00,38.3,29.0,29.51,NW,323,0.0,3.0,69,0.00,,---,0.00,VWS V14.00,2013-03-03 20:08:00,
2013-03-03 15:09:00,38.5,29.2,29.51,NW,323,0.0,3.0,69,0.00,,---,0.00,VWS V14.00,2013-03-03 20:09:00,
2013-03-03 15:12:00,38.6,29.0,29.51,NNW,342,1.0,5.0,68,0.00,,---,0.00,VWS V14.00,2013-03-03 20:12:00,
2013-03-03 15:14:00,38.5,28.9,29.51,NNW,342,3.0,5.0,68,0.00,,---,0.00,VWS V14.00,2013-03-03 20:14:00,
2013-03-03 15:15:00,38.2,30.0,29.51,WSW,256,0.0,7.0,72,0.00,,---,0.00,VWS V14.00,2013-03-03 20:15:00,
2013-03-03 15:17:00,38.2,28.6,29.51,NNW,346,1.0,5.0,68,0.00,,---,0.00,VWS V14.00,2013-03-03 20:17:00,
2013-03-03 15:19:00,38.2,28.6,29.51,NNW,346,0.0,5.0,68,0.00,,---,0.00,VWS V14.00,2013-03-03 20:19:00,
2013-03-03 15:22:00,38.2,28.6,29.51,NNW,334,0.0,5.0,68,0.00,,---,0.00,VWS V14.00,2013-03-03 20:22:00,
2013-03-03 15:23:00,38.2,28.6,29.51,NNW,334,1.0,5.0,68,0.00,,---,0.00,VWS V14.00,2013-03-03 20:23:00,
2013-03-03 15:24:00,38.2,28.6,29.51,West,267,3.0,6.0,68,0.00,,---,0.00,VWS V14.00,2013-03-03 20:24:00,
2013-03-03 15:27:00,38.2,28.6,29.51,NW,306,1.0,6.0,68,0.00,,---,0.00,VWS V14.00,2013-03-03 20:27:00,
2013-03-03 15:28:00,38.2,28.6,29.51,NNW,346,2.0,6.0,68,0.00,,---,0.00,VWS V14.00,2013-03-03 20:28:00,
2013-03-03 15:29:00,38.2,28.2,29.50,NNW,344,2.0,6.0,67,0.00,,---,0.00,VWS V14.00,2013-03-03 20:29:00,
2013-03-03 15:30:00,37.8,30.3,29.51,NW,319,0.0,4.0,74,0.00,,---,0.00,VWS V14.00,2013-03-03 20:30:00,
2013-03-03 15:32:00,38.2,28.2,29.50,North,349,1.0,4.0,67,0.00,,---,0.00,VWS V14.00,2013-03-03 20:32:00,
2013-03-03 15:33:00,38.2,28.2,29.50,North,349,1.0,4.0,67,0.00,,---,0.00,VWS V14.00,2013-03-03 20:33:00,
2013-03-03 15:34:00,38.2,28.6,29.50,NNW,343,3.0,4.0,68,0.00,,---,0.00,VWS V14.00,2013-03-03 20:34:00,
2013-03-03 15:37:00,38.2,28.6,29.50,NNW,344,0.0,4.0,68,0.00,,---,0.00,VWS V14.00,2013-03-03 20:37:00,
2013-03-03 15:38:00,38.3,28.3,29.50,NNW,344,0.0,4.0,67,0.00,,---,0.00,VWS V14.00,2013-03-03 20:38:00,
2013-03-03 15:39:00,38.3,28.3,29.50,NNW,343,0.0,4.0,67,0.00,,---,0.00,VWS V14.00,2013-03-03 20:39:00,
2013-03-03 15:42:00,38.5,28.5,29.50,NNW,343,2.0,4.0,67,0.00,,---,0.00,VWS V14.00,2013-03-03 20:42:00,
2013-03-03 15:43:00,38.5,28.5,29.50,NNW,343,2.0,4.0,67,0.00,,---,0.00,VWS V14.00,2013-03-03 20:43:00,
2013-03-03 15:44:00,38.5,28.1,29.50,West,272,1.0,4.0,66,0.00,,---,0.00,VWS V14.00,2013-03-03 20:44:00,
2013-03-03 15:45:00,37.6,30.7,29.51,West,266,2.0,5.0,76,0.00,,---,0.00,VWS V14.00,2013-03-03 20:45:00,
2013-03-03 15:48:00,38.6,28.6,29.50,WNW,295,3.0,3.0,67,0.00,,---,0.00,VWS V14.00,2013-03-03 20:48:00,
2013-03-03 15:49:00,38.6,28.2,29.50,NW,311,1.0,4.0,66,0.00,,---,0.00,VWS V14.00,2013-03-03 20:49:00,
2013-03-03 15:53:00,38.5,28.5,29.50,NW,325,0.0,5.0,67,0.00,,---,0.00,VWS V14.00,2013-03-03 20:53:00,
2013-03-03 15:54:00,38.5,28.9,29.50,NW,325,1.0,5.0,68,0.00,,---,0.00,VWS V14.00,2013-03-03 20:54:00,
2013-03-03 15:58:00,38.5,28.9,29.50,WNW,283,1.0,5.0,68,0.00,,---,0.00,VWS V14.00,2013-03-03 20:58:00,
2013-03-03 15:59:00,38.5,29.6,29.50,WNW,284,0.0,0.0,70,0.00,,---,0.00,VWS V14.00,2013-03-03 20:59:00,
2013-03-03 16:00:00,38.5,29.6,29.50,WNW,285,0.0,0.0,70,0.00,,---,0.00,VWS V14.00,2013-03-03 21:00:00,
2013-03-03 16:03:00,38.5,29.9,29.50,West,273,3.0,7.0,71,0.00,,---,0.00,VWS V14.00,2013-03-03 21:03:00,
2013-03-03 16:05:00,38.3,29.4,29.50,West,271,0.0,7.0,70,0.00,,---,0.00,VWS V14.00,2013-03-03 21:05:00,
2013-03-03 16:08:00,38.3,29.7,29.50,West,271,0.0,7.0,71,0.00,,---,0.00,VWS V14.00,2013-03-03 21:08:00,
2013-03-03 16:09:00,38.3,29.7,29.50,West,271,1.0,7.0,71,0.00,,---,0.00,VWS V14.00,2013-03-03 21:09:00,
2013-03-03 16:10:00,38.3,29.7,29.50,West,271,0.0,7.0,71,0.00,,---,0.00,VWS V14.00,2013-03-03 21:10:00,
2013-03-03 16:14:00,38.3,30.1,29.51,WSW,257,0.0,7.0,72,0.00,,---,0.00,VWS V14.00,2013-03-03 21:14:00,
2013-03-03 16:15:00,38.2,30.3,29.51,West,273,4.0,4.0,73,0.00,,---,0.00,VWS V14.00,2013-03-03 21:15:00,
2013-03-03 16:19:00,38.0,30.1,29.51,NW,321,0.0,4.0,73,0.00,,---,0.00,VWS V14.00,2013-03-03 21:19:00,
2013-03-03 16:20:00,38.0,30.1,29.51,NW,321,0.0,4.0,73,0.00,,---,0.00,VWS V14.00,2013-03-03 21:20:00,
2013-03-03 16:24:00,37.8,29.9,29.51,NNW,333,0.0,4.0,73,0.00,,---,0.00,VWS V14.00,2013-03-03 21:24:00,
2013-03-03 16:25:00,37.8,29.9,29.51,NNW,333,0.0,4.0,73,0.00,,---,0.00,VWS V14.00,2013-03-03 21:25:00,
2013-03-03 16:29:00,37.8,30.3,29.51,NW,315,0.0,4.0,74,0.00,,---,0.00,VWS V14.00,2013-03-03 21:29:00,
2013-03-03 16:30:00,37.8,30.3,29.51,West,268,2.0,4.0,74,0.00,,---,0.00,VWS V14.00,2013-03-03 21:30:00,
2013-03-03 16:34:00,37.8,30.3,29.51,West,271,5.0,5.0,74,0.00,,---,0.00,VWS V14.00,2013-03-03 21:34:00,
2013-03-03 16:35:00,37.6,30.1,29.51,West,263,1.0,5.0,74,0.00,,---,0.00,VWS V14.00,2013-03-03 21:35:00,
2013-03-03 16:36:00,37.6,30.1,29.51,West,263,0.0,5.0,74,0.00,,---,0.00,VWS V14.00,2013-03-03 21:36:00,
2013-03-03 16:39:00,37.6,30.4,29.51,West,263,1.0,5.0,75,0.00,,---,0.00,VWS V14.00,2013-03-03 21:39:00,
2013-03-03 16:40:00,37.6,30.4,29.51,West,265,4.0,5.0,75,0.00,,---,0.00,VWS V14.00,2013-03-03 21:40:00,
2013-03-03 16:41:00,37.6,30.4,29.51,West,264,3.0,5.0,75,0.00,,---,0.00,VWS V14.00,2013-03-03 21:41:00,
2013-03-03 16:44:00,37.6,30.7,29.51,West,266,2.0,5.0,76,0.00,,---,0.00,VWS V14.00,2013-03-03 21:44:00,
2013-03-03 16:45:00,37.6,30.7,29.51,West,262,1.0,5.0,76,0.00,,---,0.00,VWS V14.00,2013-03-03 21:45:00,
2013-03-03 16:46:00,37.5,30.6,29.51,NNW,333,2.0,5.0,76,0.00,,---,0.00,VWS V14.00,2013-03-03 21:46:00,
2013-03-03 16:49:00,37.5,30.6,29.51,West,279,1.0,5.0,76,0.00,,---,0.00,VWS V14.00,2013-03-03 21:49:00,
2013-03-03 16:50:00,37.5,31.0,29.51,West,278,1.0,5.0,77,0.00,,---,0.00,VWS V14.00,2013-03-03 21:50:00,
2013-03-03 16:51:00,37.5,31.0,29.51,West,278,0.0,5.0,77,0.00,,---,0.00,VWS V14.00,2013-03-03 21:51:00,
2013-03-03 16:54:00,37.5,31.0,29.51,West,278,0.0,5.0,77,0.00,,---,0.00,VWS V14.00,2013-03-03 21:54:00,
2013-03-03 16:55:00,37.5,31.0,29.51,West,278,1.0,5.0,77,0.00,,---,0.00,VWS V14.00,2013-03-03 21:55:00,
2013-03-03 16:56:00,37.5,31.0,29.51,West,264,2.0,5.0,77,0.00,,---,0.00,VWS V14.00,2013-03-03 21:56:00,
2013-03-03 16:59:00,37.3,31.1,29.51,West,264,0.0,0.0,78,0.00,,---,0.00,VWS V14.00,2013-03-03 21:59:00,
2013-03-03 17:00:00,37.3,31.1,29.51,West,264,0.0,3.0,78,0.00,,---,0.00,VWS V14.00,2013-03-03 22:00:00,
2013-03-03 17:01:00,37.3,31.1,29.51,West,264,0.0,3.0,78,0.00,,---,0.00,VWS V14.00,2013-03-03 22:01:00,
2013-03-03 17:04:00,37.2,31.0,29.51,West,262,1.0,3.0,78,0.00,,---,0.00,VWS V14.00,2013-03-03 22:04:00,
2013-03-03 17:05:00,37.2,31.0,29.51,NW,316,0.0,3.0,78,0.00,,---,0.00,VWS V14.00,2013-03-03 22:05:00,
2013-03-03 17:06:00,37.2,31.0,29.51,NW,315,1.0,3.0,78,0.00,,---,0.00,VWS V14.00,2013-03-03 22:06:00,
2013-03-03 17:09:00,37.0,31.1,29.51,NW,307,1.0,3.0,79,0.00,,---,0.00,VWS V14.00,2013-03-03 22:09:00,
2013-03-03 17:10:00,37.0,31.1,29.51,NW,307,1.0,3.0,79,0.00,,---,0.00,VWS V14.00,2013-03-03 22:10:00,
2013-03-03 17:11:00,37.0,31.1,29.51,NW,307,0.0,3.0,79,0.00,,---,0.00,VWS V14.00,2013-03-03 22:11:00,
2013-03-03 17:14:00,36.9,31.0,29.51,WSW,246,1.0,2.0,79,0.00,,---,0.00,VWS V14.00,2013-03-03 22:14:00,
2013-03-03 17:15:00,36.9,31.0,29.51,WSW,246,0.0,2.0,79,0.00,,---,0.00,VWS V14.00,2013-03-03 22:15:00,
2013-03-03 17:16:00,36.9,31.0,29.51,WSW,246,0.0,2.0,79,0.00,,---,0.00,VWS V14.00,2013-03-03 22:16:00,
2013-03-03 17:19:00,36.8,30.9,29.51,WSW,257,2.0,5.0,79,0.00,,---,0.00,VWS V14.00,2013-03-03 22:19:00,
2013-03-03 17:20:00,36.8,31.2,29.51,WSW,257,1.0,5.0,80,0.00,,---,0.00,VWS V14.00,2013-03-03 22:20:00,
2013-03-03 17:21:00,36.8,31.2,29.51,WSW,257,0.0,5.0,80,0.00,,---,0.00,VWS V14.00,2013-03-03 22:21:00,
2013-03-03 17:25:00,36.6,31.0,29.51,WSW,257,1.0,5.0,80,0.00,,---,0.00,VWS V14.00,2013-03-03 22:25:00,
2013-03-03 17:26:00,36.5,30.9,29.51,West,262,4.0,5.0,80,0.00,,---,0.00,VWS V14.00,2013-03-03 22:26:00,
2013-03-03 17:30:00,36.3,30.7,29.52,West,269,0.0,2.0,80,0.00,,---,0.00,VWS V14.00,2013-03-03 22:30:00,
2013-03-03 17:31:00,36.3,30.7,29.52,West,269,0.0,4.0,80,0.00,,---,0.00,VWS V14.00,2013-03-03 22:31:00,
2013-03-03 17:35:00,36.2,30.6,29.52,West,266,0.0,4.0,80,0.00,,---,0.00,VWS V14.00,2013-03-03 22:35:00,
2013-03-03 17:36:00,36.2,30.6,29.52,West,266,1.0,4.0,80,0.00,,---,0.00,VWS V14.00,2013-03-03 22:36:00,
2013-03-03 17:40:00,36.2,30.9,29.52,West,266,0.0,4.0,81,0.00,,---,0.00,VWS V14.00,2013-03-03 22:40:00,
2013-03-03 17:41:00,36.2,30.9,29.52,West,266,1.0,4.0,81,0.00,,---,0.00,VWS V14.00,2013-03-03 22:41:00,
2013-03-03 17:45:00,36.0,30.8,29.52,West,266,2.0,2.0,81,0.00,,---,0.00,VWS V14.00,2013-03-03 22:45:00,
2013-03-03 17:46:00,36.0,31.0,29.52,SW,217,1.0,5.0,82,0.00,,---,0.00,VWS V14.00,2013-03-03 22:46:00,
2013-03-03 17:50:00,36.0,31.0,29.52,WSW,255,1.0,5.0,82,0.00,,---,0.00,VWS V14.00,2013-03-03 22:50:00,
2013-03-03 17:51:00,35.9,31.0,29.52,WSW,253,0.0,5.0,82,0.00,,---,0.00,VWS V14.00,2013-03-03 22:51:00,
2013-03-03 17:55:00,35.9,31.0,29.52,WSW,257,1.0,5.0,82,0.00,,---,0.00,VWS V14.00,2013-03-03 22:55:00,
2013-03-03 17:56:00,35.8,30.9,29.52,WSW,257,2.0,5.0,82,0.00,,---,0.00,VWS V14.00,2013-03-03 22:56:00,
2013-03-03 17:57:00,35.8,30.9,29.52,WSW,257,0.0,5.0,82,0.00,,---,0.00,VWS V14.00,2013-03-03 22:57:00,
2013-03-03 18:00:00,35.8,31.1,29.53,WSW,255,0.0,1.0,83,0.00,,---,0.00,VWS V14.00,2013-03-03 23:00:00,
2013-03-03 18:01:00,35.8,31.1,29.53,WSW,255,0.0,2.0,83,0.00,,---,0.00,VWS V14.00,2013-03-03 23:01:00,
2013-03-03 18:02:00,35.8,31.1,29.53,WSW,255,0.0,2.0,83,0.00,,---,0.00,VWS V14.00,2013-03-03 23:02:00,
2013-03-03 18:05:00,35.6,31.0,29.53,WSW,255,1.0,2.0,83,0.00,,---,0.00,VWS V14.00,2013-03-03 23:05:00,
2013-03-03 18:06:00,35.6,31.0,29.53,WSW,255,1.0,3.0,83,0.00,,---,0.00,VWS V14.00,2013-03-03 23:06:00,
2013-03-03 18:07:00,35.6,31.0,29.53,WSW,255,1.0,3.0,83,0.00,,---,0.00,VWS V14.00,2013-03-03 23:07:00,
2013-03-03 18:10:00,35.6,31.0,29.53,WSW,255,0.0,3.0,83,0.00,,---,0.00,VWS V14.00,2013-03-03 23:10:00,
2013-03-03 18:11:00,35.6,31.0,29.53,WSW,255,0.0,3.0,83,0.00,,---,0.00,VWS V14.00,2013-03-03 23:11:00,
2013-03-03 18:12:00,35.6,31.0,29.53,WSW,255,0.0,3.0,83,0.00,,---,0.00,VWS V14.00,2013-03-03 23:12:00,
2013-03-03 18:15:00,35.5,30.6,29.53,WSW,255,0.0,0.0,82,0.00,,---,0.00,VWS V14.00,2013-03-03 23:15:00,
2013-03-03 18:16:00,35.5,30.6,29.53,WSW,255,0.0,1.0,82,0.00,,---,0.00,VWS V14.00,2013-03-03 23:16:00,
2013-03-03 18:17:00,35.5,30.6,29.53,NW,319,2.0,4.0,82,0.00,,---,0.00,VWS V14.00,2013-03-03 23:17:00,
2013-03-03 18:20:00,35.5,30.0,29.53,NW,319,0.0,4.0,80,0.00,,---,0.00,VWS V14.00,2013-03-03 23:20:00,
2013-03-03 18:21:00,35.5,30.0,29.53,NW,319,0.0,4.0,80,0.00,,---,0.00,VWS V14.00,2013-03-03 23:21:00,
2013-03-03 18:22:00,35.5,29.6,29.53,NW,319,0.0,4.0,79,0.00,,---,0.00,VWS V14.00,2013-03-03 23:22:00,
2013-03-03 18:25:00,35.5,29.3,29.53,NW,319,0.0,4.0,78,0.00,,---,0.00,VWS V14.00,2013-03-03 23:25:00,
2013-03-03 18:26:00,35.3,29.1,29.53,NW,319,1.0,4.0,78,0.00,,---,0.00,VWS V14.00,2013-03-03 23:26:00,
2013-03-03 18:27:00,35.3,29.1,29.53,NW,319,3.0,4.0,78,0.00,,---,0.00,VWS V14.00,2013-03-03 23:27:00,
2013-03-03 18:30:00,35.3,28.8,29.53,NNW,335,0.0,5.0,77,0.00,,---,0.00,VWS V14.00,2013-03-03 23:30:00,
2013-03-03 18:31:00,35.3,28.8,29.53,NNW,335,0.0,5.0,77,0.00,,---,0.00,VWS V14.00,2013-03-03 23:31:00,
2013-03-03 18:32:00,35.3,28.8,29.53,North,353,6.0,8.0,77,0.00,,---,0.00,VWS V14.00,2013-03-03 23:32:00,
2013-03-03 18:35:00,35.3,28.8,29.53,North,352,0.0,8.0,77,0.00,,---,0.00,VWS V14.00,2013-03-03 23:35:00,
2013-03-03 18:36:00,35.3,28.8,29.53,North,352,0.0,8.0,77,0.00,,---,0.00,VWS V14.00,2013-03-03 23:36:00,
2013-03-03 18:37:00,35.3,28.8,29.53,North,352,1.0,8.0,77,0.00,,---,0.00,VWS V14.00,2013-03-03 23:37:00,
2013-03-03 18:41:00,35.3,28.8,29.53,NNW,333,0.0,8.0,77,0.00,,---,0.00,VWS V14.00,2013-03-03 23:41:00,
2013-03-03 18:42:00,35.3,28.8,29.53,NNW,333,0.0,8.0,77,0.00,,---,0.00,VWS V14.00,2013-03-03 23:42:00,
2013-03-03 18:43:00,35.3,28.8,29.53,NNW,333,0.0,8.0,77,0.00,,---,0.00,VWS V14.00,2013-03-03 23:43:00,
2013-03-03 18:45:00,35.0,28.2,29.54,West,266,1.0,4.0,76,0.00,,---,0.00,VWS V14.00,2013-03-03 23:45:00,
2013-03-03 18:46:00,35.3,28.8,29.53,West,266,1.0,2.0,77,0.00,,---,0.00,VWS V14.00,2013-03-03 23:46:00,
2013-03-03 18:47:00,35.3,28.8,29.53,West,266,0.0,2.0,77,0.00,,---,0.00,VWS V14.00,2013-03-03 23:47:00,
2013-03-03 18:48:00,35.3,28.8,29.53,West,266,0.0,2.0,77,0.00,,---,0.00,VWS V14.00,2013-03-03 23:48:00,
2013-03-03 18:51:00,35.2,28.7,29.53,West,266,0.0,2.0,77,0.00,,---,0.00,VWS V14.00,2013-03-03 23:51:00,
2013-03-03 18:52:00,35.2,28.7,29.53,West,266,0.0,3.0,77,0.00,,---,0.00,VWS V14.00,2013-03-03 23:52:00,
2013-03-03 18:53:00,35.2,28.7,29.53,West,266,0.0,3.0,77,0.00,,---,0.00,VWS V14.00,2013-03-03 23:53:00,
2013-03-03 18:56:00,35.2,28.7,29.53,West,266,0.0,3.0,77,0.00,,---,0.00,VWS V14.00,2013-03-03 23:56:00,
2013-03-03 18:57:00,35.2,28.7,29.53,West,266,0.0,3.0,77,0.00,,---,0.00,VWS V14.00,2013-03-03 23:57:00,
2013-03-03 18:58:00,35.2,28.7,29.53,West,266,0.0,3.0,77,0.00,,---,0.00,VWS V14.00,2013-03-03 23:58:00,
2013-03-03 19:00:00,34.9,28.8,29.54,West,266,0.0,3.0,78,0.00,,---,0.00,VWS V14.00,2013-03-04 00:00:00,
2013-03-03 19:01:00,35.2,28.7,29.53,West,266,0.0,3.0,77,0.00,,---,0.00,VWS V14.00,2013-03-04 00:01:00,
2013-03-03 19:02:00,35.2,28.7,29.53,West,266,0.0,3.0,77,0.00,,---,0.00,VWS V14.00,2013-03-04 00:02:00,
2013-03-03 19:03:00,35.2,28.7,29.53,West,266,0.0,3.0,77,0.00,,---,0.00,VWS V14.00,2013-03-04 00:03:00,
2013-03-03 19:06:00,35.2,28.7,29.53,West,266,0.0,3.0,77,0.00,,---,0.00,VWS V14.00,2013-03-04 00:06:00,
2013-03-03 19:07:00,35.2,28.7,29.53,West,266,0.0,3.0,77,0.00,,---,0.00,VWS V14.00,2013-03-04 00:07:00,
2013-03-03 19:08:00,35.2,28.7,29.53,West,266,0.0,3.0,77,0.00,,---,0.00,VWS V14.00,2013-03-04 00:08:00,
2013-03-03 19:11:00,35.0,28.5,29.53,West,266,0.0,3.0,77,0.00,,---,0.00,VWS V14.00,2013-03-04 00:11:00,
2013-03-03 19:12:00,35.0,28.5,29.53,West,266,0.0,3.0,77,0.00,,---,0.00,VWS V14.00,2013-03-04 00:12:00,
2013-03-03 19:13:00,35.0,28.5,29.53,West,266,2.0,3.0,77,0.00,,---,0.00,VWS V14.00,2013-03-04 00:13:00,
2013-03-03 19:15:00,34.6,28.8,29.54,West,266,0.0,3.0,79,0.00,,---,0.00,VWS V14.00,2013-03-04 00:15:00,
2013-03-03 19:16:00,35.0,28.5,29.54,West,266,0.0,1.0,77,0.00,,---,0.00,VWS V14.00,2013-03-04 00:16:00,
2013-03-03 19:17:00,35.0,28.5,29.54,West,266,0.0,1.0,77,0.00,,---,0.00,VWS V14.00,2013-03-04 00:17:00,
2013-03-03 19:18:00,35.0,28.5,29.54,West,266,0.0,1.0,77,0.00,,---,0.00,VWS V14.00,2013-03-04 00:18:00,
2013-03-03 19:21:00,35.0,28.5,29.54,West,266,0.0,2.0,77,0.00,,---,0.00,VWS V14.00,2013-03-04 00:21:00,
2013-03-03 19:22:00,35.0,28.5,29.54,West,266,0.0,2.0,77,0.00,,---,0.00,VWS V14.00,2013-03-04 00:22:00,
2013-03-03 19:23:00,35.0,28.5,29.54,West,266,0.0,2.0,77,0.00,,---,0.00,VWS V14.00,2013-03-04 00:23:00,
2013-03-03 19:26:00,35.0,28.5,29.54,West,266,0.0,2.0,77,0.00,,---,0.00,VWS V14.00,2013-03-04 00:26:00,
2013-03-03 19:27:00,35.0,28.5,29.54,West,266,0.0,2.0,77,0.00,,---,0.00,VWS V14.00,2013-03-04 00:27:00,
2013-03-03 19:28:00,35.0,28.5,29.54,West,266,1.0,2.0,77,0.00,,---,0.00,VWS V14.00,2013-03-04 00:28:00,
2013-03-03 19:30:00,34.3,28.8,29.54,WSW,257,0.0,6.0,80,0.00,,---,0.00,VWS V14.00,2013-03-04 00:30:00,
2013-03-03 19:31:00,35.0,28.5,29.53,West,266,2.0,4.0,77,0.00,,---,0.00,VWS V14.00,2013-03-04 00:31:00,
2013-03-03 19:33:00,35.0,28.5,29.53,West,266,0.0,4.0,77,0.00,,---,0.00,VWS V14.00,2013-03-04 00:33:00,
2013-03-03 19:36:00,35.0,28.5,29.53,West,266,0.0,4.0,77,0.00,,---,0.00,VWS V14.00,2013-03-04 00:36:00,
2013-03-03 19:37:00,35.0,28.5,29.53,West,266,0.0,4.0,77,0.00,,---,0.00,VWS V14.00,2013-03-04 00:37:00,
2013-03-03 19:38:00,35.0,28.5,29.53,West,266,0.0,4.0,77,0.00,,---,0.00,VWS V14.00,2013-03-04 00:38:00,
2013-03-03 19:41:00,35.0,28.2,29.53,West,266,0.0,4.0,76,0.00,,---,0.00,VWS V14.00,2013-03-04 00:41:00,
2013-03-03 19:42:00,35.0,28.5,29.53,West,266,3.0,4.0,77,0.00,,---,0.00,VWS V14.00,2013-03-04 00:42:00,
2013-03-03 19:43:00,35.0,28.5,29.54,West,266,2.0,4.0,77,0.00,,---,0.00,VWS V14.00,2013-03-04 00:43:00,
2013-03-03 19:45:00,34.1,28.6,29.54,West,271,2.0,7.0,80,0.00,,---,0.00,VWS V14.00,2013-03-04 00:45:00,
2013-03-03 19:46:00,35.0,28.5,29.54,West,266,0.0,2.0,77,0.00,,---,0.00,VWS V14.00,2013-03-04 00:46:00,
2013-03-03 19:48:00,35.0,28.5,29.54,West,266,0.0,2.0,77,0.00,,---,0.00,VWS V14.00,2013-03-04 00:48:00,
2013-03-03 19:49:00,35.0,28.5,29.54,West,266,1.0,2.0,77,0.00,,---,0.00,VWS V14.00,2013-03-04 00:49:00,
2013-03-03 19:51:00,34.9,28.4,29.54,West,266,0.0,2.0,77,0.00,,---,0.00,VWS V14.00,2013-03-04 00:51:00,
2013-03-03 19:53:00,34.9,28.4,29.54,West,266,0.0,2.0,77,0.00,,---,0.00,VWS V14.00,2013-03-04 00:53:00,
2013-03-03 19:54:00,34.9,28.4,29.54,West,266,0.0,3.0,77,0.00,,---,0.00,VWS V14.00,2013-03-04 00:54:00,
2013-03-03 19:56:00,34.9,28.4,29.54,West,266,1.0,3.0,77,0.00,,---,0.00,VWS V14.00,2013-03-04 00:56:00,
2013-03-03 19:58:00,34.9,28.8,29.54,West,266,0.0,3.0,78,0.00,,---,0.00,VWS V14.00,2013-03-04 00:58:00,
2013-03-03 19:59:00,34.9,28.8,29.54,West,266,0.0,3.0,78,0.00,,---,0.00,VWS V14.00,2013-03-04 00:59:00,
2013-03-03 20:00:00,34.1,28.3,29.55,NW,314,2.0,5.0,79,0.00,,---,0.00,VWS V14.00,2013-03-04 01:00:00,
2013-03-03 20:01:00,34.7,28.5,29.54,West,266,0.0,3.0,78,0.00,,---,0.00,VWS V14.00,2013-03-04 01:01:00,
2013-03-03 20:03:00,34.7,28.5,29.54,West,266,0.0,3.0,78,0.00,,---,0.00,VWS V14.00,2013-03-04 01:03:00,
2013-03-03 20:04:00,34.7,28.5,29.54,West,266,0.0,3.0,78,0.00,,---,0.00,VWS V14.00,2013-03-04 01:04:00,
2013-03-03 20:07:00,34.7,28.5,29.54,West,266,0.0,3.0,78,0.00,,---,0.00,VWS V14.00,2013-03-04 01:07:00,
2013-03-03 20:08:00,34.7,28.9,29.54,West,266,2.0,3.0,79,0.00,,---,0.00,VWS V14.00,2013-03-04 01:08:00,
2013-03-03 20:09:00,34.6,28.8,29.54,West,266,1.0,3.0,79,0.00,,---,0.00,VWS V14.00,2013-03-04 01:09:00,
2013-03-03 20:12:00,34.6,28.8,29.54,West,266,0.0,3.0,79,0.00,,---,0.00,VWS V14.00,2013-03-04 01:12:00,
2013-03-03 20:13:00,34.6,28.8,29.54,West,266,1.0,3.0,79,0.00,,---,0.00,VWS V14.00,2013-03-04 01:13:00,
2013-03-03 20:14:00,34.6,28.8,29.54,West,266,0.0,3.0,79,0.00,,---,0.00,VWS V14.00,2013-03-04 01:14:00,
2013-03-03 20:15:00,35.0,25.5,29.54,North,1,3.0,12.0,68,0.00,,---,0.00,VWS V14.00,2013-03-04 01:15:00,
2013-03-03 20:17:00,34.4,28.6,29.54,West,266,0.0,0.0,79,0.00,,---,0.00,VWS V14.00,2013-03-04 01:17:00,
2013-03-03 20:18:00,34.4,28.6,29.54,West,266,1.0,1.0,79,0.00,,---,0.00,VWS V14.00,2013-03-04 01:18:00,
2013-03-03 20:19:00,34.4,28.6,29.54,West,266,0.0,2.0,79,0.00,,---,0.00,VWS V14.00,2013-03-04 01:19:00,
2013-03-03 20:22:00,34.4,28.9,29.54,West,266,1.0,4.0,80,0.00,,---,0.00,VWS V14.00,2013-03-04 01:22:00,
2013-03-03 20:24:00,34.3,28.8,29.54,WSW,257,3.0,6.0,80,0.00,,---,0.00,VWS V14.00,2013-03-04 01:24:00,
2013-03-03 20:27:00,34.3,28.8,29.54,WSW,257,0.0,6.0,80,0.00,,---,0.00,VWS V14.00,2013-03-04 01:27:00,
2013-03-03 20:29:00,34.3,28.8,29.54,WSW,257,0.0,6.0,80,0.00,,---,0.00,VWS V14.00,2013-03-04 01:29:00,
2013-03-03 20:30:00,35.3,25.1,29.54,North,7,1.0,9.0,66,0.00,,---,0.00,VWS V14.00,2013-03-04 01:30:00,
2013-03-03 20:32:00,34.1,28.6,29.54,West,270,1.0,7.0,80,0.00,,---,0.00,VWS V14.00,2013-03-04 01:32:00,
2013-03-03 20:34:00,34.1,28.6,29.54,West,270,0.0,7.0,80,0.00,,---,0.00,VWS V14.00,2013-03-04 01:34:00,
2013-03-03 20:37:00,34.1,28.6,29.54,West,271,0.0,7.0,80,0.00,,---,0.00,VWS V14.00,2013-03-04 01:37:00,
2013-03-03 20:39:00,34.1,28.6,29.54,West,271,1.0,7.0,80,0.00,,---,0.00,VWS V14.00,2013-03-04 01:39:00,
2013-03-03 20:43:00,34.1,28.6,29.54,West,271,0.0,7.0,80,0.00,,---,0.00,VWS V14.00,2013-03-04 01:43:00,
2013-03-03 20:44:00,34.1,28.6,29.54,West,271,1.0,7.0,80,0.00,,---,0.00,VWS V14.00,2013-03-04 01:44:00,
2013-03-03 20:45:00,35.3,25.1,29.54,NNW,341,1.0,5.0,66,0.00,,---,0.00,VWS V14.00,2013-03-04 01:45:00,
2013-03-03 20:48:00,34.1,28.6,29.54,WNW,287,0.0,5.0,80,0.00,,---,0.00,VWS V14.00,2013-03-04 01:48:00,
2013-03-03 20:49:00,34.1,28.6,29.54,WNW,287,0.0,5.0,80,0.00,,---,0.00,VWS V14.00,2013-03-04 01:49:00,
2013-03-03 20:50:00,34.1,28.6,29.54,WNW,287,0.0,5.0,80,0.00,,---,0.00,VWS V14.00,2013-03-04 01:50:00,
2013-03-03 20:53:00,34.1,28.3,29.54,WNW,287,0.0,5.0,79,0.00,,---,0.00,VWS V14.00,2013-03-04 01:53:00,
2013-03-03 20:54:00,34.1,28.3,29.54,WNW,287,0.0,5.0,79,0.00,,---,0.00,VWS V14.00,2013-03-04 01:54:00,
2013-03-03 20:55:00,34.1,28.3,29.54,WNW,287,0.0,5.0,79,0.00,,---,0.00,VWS V14.00,2013-03-04 01:55:00,
2013-03-03 20:58:00,34.1,28.3,29.54,WNW,287,0.0,5.0,79,0.00,,---,0.00,VWS V14.00,2013-03-04 01:58:00,
2013-03-03 20:59:00,34.1,28.3,29.55,NW,314,2.0,5.0,79,0.00,,---,0.00,VWS V14.00,2013-03-04 01:59:00,
2013-03-03 21:00:00,34.1,28.3,29.55,NW,315,2.0,3.0,79,0.00,,---,0.00,VWS V14.00,2013-03-04 02:00:00,
2013-03-03 21:03:00,34.1,27.7,29.55,NNW,328,2.0,5.0,77,0.00,,---,0.00,VWS V14.00,2013-03-04 02:03:00,
2013-03-03 21:04:00,34.1,27.0,29.55,NNW,328,1.0,5.0,75,0.00,,---,0.00,VWS V14.00,2013-03-04 02:04:00,
2013-03-03 21:05:00,34.3,27.2,29.55,NW,324,3.0,6.0,75,0.00,,---,0.00,VWS V14.00,2013-03-04 02:05:00,
2013-03-03 21:08:00,34.4,26.0,29.55,NW,321,2.0,12.0,71,0.00,,---,0.00,VWS V14.00,2013-03-04 02:08:00,
2013-03-03 21:09:00,34.6,25.8,29.55,NW,324,3.0,12.0,70,0.00,,---,0.00,VWS V14.00,2013-03-04 02:09:00,
2013-03-03 21:10:00,34.7,25.9,29.55,NNW,348,2.0,12.0,70,0.00,,---,0.00,VWS V14.00,2013-03-04 02:10:00,
2013-03-03 21:13:00,34.9,25.4,29.55,NNW,328,9.0,12.0,68,0.00,,---,0.00,VWS V14.00,2013-03-04 02:13:00,
2013-03-03 21:14:00,35.0,25.5,29.54,North,1,2.0,3.0,68,0.00,,---,0.00,VWS V14.00,2013-03-04 02:14:00,
2013-03-03 21:15:00,35.2,25.4,29.54,North,351,3.0,4.0,67,0.00,,---,0.00,VWS V14.00,2013-03-04 02:15:00,
2013-03-03 21:18:00,35.3,25.5,29.54,NNW,334,4.0,9.0,67,0.00,,---,0.00,VWS V14.00,2013-03-04 02:18:00,
2013-03-03 21:19:00,35.3,25.1,29.54,NNW,338,2.0,9.0,66,0.00,,---,0.00,VWS V14.00,2013-03-04 02:19:00,
2013-03-03 21:20:00,35.3,25.1,29.54,NNW,347,3.0,9.0,66,0.00,,---,0.00,VWS V14.00,2013-03-04 02:20:00,
2013-03-03 21:23:00,35.3,25.1,29.54,NNW,333,0.0,9.0,66,0.00,,---,0.00,VWS V14.00,2013-03-04 02:23:00,
2013-03-03 21:24:00,35.3,25.1,29.54,North,349,3.0,9.0,66,0.00,,---,0.00,VWS V14.00,2013-03-04 02:24:00,
2013-03-03 21:25:00,35.3,25.1,29.54,North,0,4.0,9.0,66,0.00,,---,0.00,VWS V14.00,2013-03-04 02:25:00,
2013-03-03 21:28:00,35.3,25.1,29.54,NNW,337,4.0,9.0,66,0.00,,---,0.00,VWS V14.00,2013-03-04 02:28:00,
2013-03-03 21:29:00,35.3,25.1,29.54,North,7,0.0,2.0,66,0.00,,---,0.00,VWS V14.00,2013-03-04 02:29:00,
2013-03-03 21:30:00,35.3,25.1,29.54,NNW,327,2.0,4.0,66,0.00,,---,0.00,VWS V14.00,2013-03-04 02:30:00,
2013-03-03 21:34:00,35.3,25.1,29.54,North,359,2.0,4.0,66,0.00,,---,0.00,VWS V14.00,2013-03-04 02:34:00,
2013-03-03 21:35:00,35.3,25.1,29.54,North,356,1.0,4.0,66,0.00,,---,0.00,VWS V14.00,2013-03-04 02:35:00,
2013-03-03 21:39:00,35.3,25.1,29.54,NNW,337,0.0,5.0,66,0.00,,---,0.00,VWS V14.00,2013-03-04 02:39:00,
2013-03-03 21:40:00,35.3,25.1,29.54,NNW,337,0.0,5.0,66,0.00,,---,0.00,VWS V14.00,2013-03-04 02:40:00,
2013-03-03 21:44:00,35.3,25.1,29.54,NNW,340,0.0,5.0,66,0.00,,---,0.00,VWS V14.00,2013-03-04 02:44:00,
2013-03-03 21:45:00,35.3,25.5,29.54,NNW,341,0.0,1.0,67,0.00,,---,0.00,VWS V14.00,2013-03-04 02:45:00,
2013-03-03 21:49:00,35.2,25.4,29.54,NNW,348,4.0,7.0,67,0.00,,---,0.00,VWS V14.00,2013-03-04 02:49:00,
2013-03-03 21:50:00,35.2,25.0,29.54,North,349,4.0,7.0,66,0.00,,---,0.00,VWS V14.00,2013-03-04 02:50:00,
2013-03-03 21:54:00,35.2,25.0,29.54,NNW,329,2.0,7.0,66,0.00,,---,0.00,VWS V14.00,2013-03-04 02:54:00,
2013-03-03 21:55:00,35.2,25.0,29.54,NNW,329,1.0,7.0,66,0.00,,---,0.00,VWS V14.00,2013-03-04 02:55:00,
2013-03-03 21:56:00,35.2,25.0,29.54,NNW,329,3.0,7.0,66,0.00,,---,0.00,VWS V14.00,2013-03-04 02:56:00,
2013-03-03 21:59:00,35.2,24.6,29.54,NNW,327,3.0,7.0,65,0.00,,---,0.00,VWS V14.00,2013-03-04 02:59:00,
2013-03-03 22:00:00,35.2,24.6,29.54,NNW,336,4.0,10.0,65,0.00,,---,0.00,VWS V14.00,2013-03-04 03:00:00,
2013-03-03 22:01:00,35.2,24.6,29.54,NNW,339,1.0,10.0,65,0.00,,---,0.00,VWS V14.00,2013-03-04 03:01:00,
2013-03-03 22:04:00,35.0,24.4,29.54,NE,35,5.0,10.0,65,0.00,,---,0.00,VWS V14.00,2013-03-04 03:04:00,
2013-03-03 22:05:00,35.0,24.4,29.54,North,7,4.0,10.0,65,0.00,,---,0.00,VWS V14.00,2013-03-04 03:05:00,
2013-03-03 22:06:00,35.0,24.4,29.54,North,8,1.0,10.0,65,0.00,,---,0.00,VWS V14.00,2013-03-04 03:06:00,
2013-03-03 22:09:00,35.0,24.4,29.54,NNW,327,4.0,10.0,65,0.00,,---,0.00,VWS V14.00,2013-03-04 03:09:00,
2013-03-03 22:10:00,35.0,24.4,29.54,NNW,343,1.0,10.0,65,0.00,,---,0.00,VWS V14.00,2013-03-04 03:10:00,
2013-03-03 22:11:00,35.0,24.4,29.54,NNW,343,2.0,10.0,65,0.00,,---,0.00,VWS V14.00,2013-03-04 03:11:00,
2013-03-03 22:14:00,35.0,24.4,29.53,NNW,342,1.0,10.0,65,0.00,,---,0.00,VWS V14.00,2013-03-04 03:14:00,
2013-03-03 22:15:00,35.0,24.4,29.53,NNW,342,0.0,2.0,65,0.00,,---,0.00,VWS V14.00,2013-03-04 03:15:00,
2013-03-03 22:16:00,35.0,24.4,29.53,NNW,342,1.0,2.0,65,0.00,,---,0.00,VWS V14.00,2013-03-04 03:16:00,
2013-03-03 22:19:00,34.9,24.3,29.53,NNW,347,2.0,5.0,65,0.00,,---,0.00,VWS V14.00,2013-03-04 03:19:00,
2013-03-03 22:20:00,34.9,24.3,29.53,NNW,347,1.0,5.0,65,0.00,,---,0.00,VWS V14.00,2013-03-04 03:20:00,
2013-03-03 22:21:00,34.9,24.3,29.53,NNW,329,2.0,5.0,65,0.00,,---,0.00,VWS V14.00,2013-03-04 03:21:00,
2013-03-03 22:24:00,34.9,24.0,29.53,NNW,347,3.0,6.0,64,0.00,,---,0.00,VWS V14.00,2013-03-04 03:24:00,
2013-03-03 22:25:00,34.9,24.0,29.53,North,352,5.0,7.0,64,0.00,,---,0.00,VWS V14.00,2013-03-04 03:25:00,
2013-03-03 22:27:00,34.9,24.0,29.53,NNW,347,3.0,7.0,64,0.00,,---,0.00,VWS V14.00,2013-03-04 03:27:00,
2013-03-03 22:29:00,34.9,24.0,29.53,North,352,4.0,4.0,64,0.00,,---,0.00,VWS V14.00,2013-03-04 03:29:00,
2013-03-03 22:30:00,34.9,23.6,29.53,NNW,347,3.0,9.0,63,0.00,,---,0.00,VWS V14.00,2013-03-04 03:30:00,
2013-03-03 22:32:00,34.9,23.6,29.53,North,351,5.0,9.0,63,0.00,,---,0.00,VWS V14.00,2013-03-04 03:32:00,
2013-03-03 22:34:00,34.9,23.6,29.53,NNW,333,4.0,9.0,63,0.00,,---,0.00,VWS V14.00,2013-03-04 03:34:00,
2013-03-03 22:35:00,34.9,23.6,29.53,North,352,2.0,9.0,63,0.00,,---,0.00,VWS V14.00,2013-03-04 03:35:00,
2013-03-03 22:36:00,34.9,23.6,29.53,North,352,3.0,9.0,63,0.00,,---,0.00,VWS V14.00,2013-03-04 03:36:00,
2013-03-03 22:37:00,34.9,23.6,29.53,North,359,4.0,9.0,63,0.00,,---,0.00,VWS V14.00,2013-03-04 03:37:00,
2013-03-03 22:40:00,34.9,23.6,29.53,North,359,3.0,9.0,63,0.00,,---,0.00,VWS V14.00,2013-03-04 03:40:00,
2013-03-03 22:41:00,34.9,23.6,29.53,North,359,0.0,9.0,63,0.00,,---,0.00,VWS V14.00,2013-03-04 03:41:00,
2013-03-03 22:42:00,34.7,23.4,29.53,NNW,339,6.0,9.0,63,0.00,,---,0.00,VWS V14.00,2013-03-04 03:42:00,
2013-03-03 22:45:00,34.7,23.4,29.54,NNW,330,1.0,5.0,63,0.00,,---,0.00,VWS V14.00,2013-03-04 03:45:00,
2013-03-03 22:46:00,34.7,23.4,29.54,North,355,1.0,5.0,63,0.00,,---,0.00,VWS V14.00,2013-03-04 03:46:00,
2013-03-03 22:47:00,34.7,23.4,29.54,NNW,333,4.0,8.0,63,0.00,,---,0.00,VWS V14.00,2013-03-04 03:47:00,
2013-03-03 22:50:00,34.7,23.4,29.54,NNE,15,2.0,8.0,63,0.00,,---,0.00,VWS V14.00,2013-03-04 03:50:00,
2013-03-03 22:51:00,34.7,23.4,29.54,North,1,0.0,8.0,63,0.00,,---,0.00,VWS V14.00,2013-03-04 03:51:00,
2013-03-03 22:52:00,34.6,23.3,29.54,NNW,337,2.0,8.0,63,0.00,,---,0.00,VWS V14.00,2013-03-04 03:52:00,
2013-03-03 22:55:00,34.6,23.3,29.54,NNW,328,3.0,8.0,63,0.00,,---,0.00,VWS V14.00,2013-03-04 03:55:00,
2013-03-03 22:56:00,34.6,23.3,29.54,North,1,2.0,8.0,63,0.00,,---,0.00,VWS V14.00,2013-03-04 03:56:00,
2013-03-03 22:57:00,34.6,23.3,29.54,North,353,2.0,8.0,63,0.00,,---,0.00,VWS V14.00,2013-03-04 03:57:00,
2013-03-03 23:00:00,34.4,23.1,29.53,North,356,2.0,4.0,63,0.00,,---,0.00,VWS V14.00,2013-03-04 04:00:00,
2013-03-03 23:01:00,34.4,23.1,29.53,NNW,337,4.0,6.0,63,0.00,,---,0.00,VWS V14.00,2013-03-04 04:01:00,
2013-03-03 23:02:00,34.4,22.7,29.53,North,357,3.0,6.0,62,0.00,,---,0.00,VWS V14.00,2013-03-04 04:02:00,
2013-03-03 23:05:00,34.4,23.1,29.53,NNW,331,2.0,6.0,63,0.00,,---,0.00,VWS V14.00,2013-03-04 04:05:00,
2013-03-03 23:06:00,34.4,23.1,29.53,NW,324,3.0,6.0,63,0.00,,---,0.00,VWS V14.00,2013-03-04 04:06:00,
2013-03-03 23:07:00,34.4,23.1,29.53,NNW,333,2.0,6.0,63,0.00,,---,0.00,VWS V14.00,2013-03-04 04:07:00,
2013-03-03 23:08:00,34.4,23.1,29.53,NNW,333,1.0,6.0,63,0.00,,---,0.00,VWS V14.00,2013-03-04 04:08:00,
2013-03-03 23:10:00,34.4,23.1,29.53,North,352,2.0,6.0,63,0.00,,---,0.00,VWS V14.00,2013-03-04 04:10:00,
2013-03-03 23:11:00,34.4,23.1,29.53,NW,326,3.0,6.0,63,0.00,,---,0.00,VWS V14.00,2013-03-04 04:11:00,
2013-03-03 23:12:00,34.4,23.1,29.53,NNW,340,2.0,6.0,63,0.00,,---,0.00,VWS V14.00,2013-03-04 04:12:00,
2013-03-03 23:13:00,34.4,23.1,29.53,NNW,330,4.0,6.0,63,0.00,,---,0.00,VWS V14.00,2013-03-04 04:13:00,
2013-03-03 23:15:00,34.4,23.1,29.54,North,349,1.0,2.0,63,0.00,,---,0.00,VWS V14.00,2013-03-04 04:15:00,
2013-03-03 23:16:00,34.4,23.5,29.54,North,352,2.0,3.0,64,0.00,,---,0.00,VWS V14.00,2013-03-04 04:16:00,
2013-03-03 23:17:00,34.4,23.5,29.54,NNW,348,0.0,3.0,64,0.00,,---,0.00,VWS V14.00,2013-03-04 04:17:00,
2013-03-03 23:18:00,34.4,23.5,29.54,NNW,348,0.0,3.0,64,0.00,,---,0.00,VWS V14.00,2013-03-04 04:18:00,
2013-03-03 23:20:00,34.3,23.4,29.54,NNW,330,6.0,6.0,64,0.00,,---,0.00,VWS V14.00,2013-03-04 04:20:00,
2013-03-03 23:22:00,34.3,23.8,29.54,North,351,0.0,6.0,65,0.00,,---,0.00,VWS V14.00,2013-03-04 04:22:00,
2013-03-03 23:23:00,34.3,23.8,29.54,North,351,1.0,6.0,65,0.00,,---,0.00,VWS V14.00,2013-03-04 04:23:00,
2013-03-03 23:25:00,34.3,23.8,29.54,NNW,335,1.0,6.0,65,0.00,,---,0.00,VWS V14.00,2013-03-04 04:25:00,
2013-03-03 23:27:00,34.3,23.8,29.54,NNW,333,6.0,9.0,65,0.00,,---,0.00,VWS V14.00,2013-03-04 04:27:00,
2013-03-03 23:28:00,34.3,23.8,29.54,NNW,346,0.0,9.0,65,0.00,,---,0.00,VWS V14.00,2013-03-04 04:28:00,
2013-03-03 23:30:00,34.1,24.0,29.53,NNW,346,0.0,2.0,66,0.00,,---,0.00,VWS V14.00,2013-03-04 04:30:00,
2013-03-03 23:32:00,34.1,24.0,29.53,North,354,2.0,4.0,66,0.00,,---,0.00,VWS V14.00,2013-03-04 04:32:00,
2013-03-03 23:33:00,34.1,24.0,29.53,NNW,340,2.0,4.0,66,0.00,,---,0.00,VWS V14.00,2013-03-04 04:33:00,
2013-03-03 23:34:00,34.1,24.0,29.53,NNW,330,2.0,4.0,66,0.00,,---,0.00,VWS V14.00,2013-03-04 04:34:00,
2013-03-03 23:35:00,34.1,24.0,29.53,NNW,333,3.0,4.0,66,0.00,,---,0.00,VWS V14.00,2013-03-04 04:35:00,
2013-03-03 23:37:00,34.0,23.9,29.53,North,350,1.0,4.0,66,0.00,,---,0.00,VWS V14.00,2013-03-04 04:37:00,
2013-03-03 23:38:00,34.0,24.2,29.53,NNW,343,4.0,4.0,67,0.00,,---,0.00,VWS V14.00,2013-03-04 04:38:00,
2013-03-03 23:39:00,34.0,24.2,29.53,NNW,340,3.0,4.0,67,0.00,,---,0.00,VWS V14.00,2013-03-04 04:39:00,
2013-03-03 23:40:00,34.0,24.2,29.53,North,356,4.0,4.0,67,0.00,,---,0.00,VWS V14.00,2013-03-04 04:40:00,
2013-03-03 23:42:00,34.0,24.2,29.53,North,350,3.0,7.0,67,0.00,,---,0.00,VWS V14.00,2013-03-04 04:42:00,
2013-03-03 23:43:00,33.8,24.0,29.53,NNW,348,3.0,7.0,67,0.00,,---,0.00,VWS V14.00,2013-03-04 04:43:00,
2013-03-03 23:44:00,33.8,24.0,29.53,North,352,3.0,7.0,67,0.00,,---,0.00,VWS V14.00,2013-03-04 04:44:00,
2013-03-03 23:45:00,33.8,23.7,29.53,NNW,338,3.0,5.0,66,0.00,,---,0.00,VWS V14.00,2013-03-04 04:45:00,
2013-03-03 23:47:00,33.8,24.0,29.53,NNW,348,0.0,5.0,67,0.00,,---,0.00,VWS V14.00,2013-03-04 04:47:00,
2013-03-03 23:48:00,33.8,24.0,29.53,West,265,0.0,5.0,67,0.00,,---,0.00,VWS V14.00,2013-03-04 04:48:00,
2013-03-03 23:49:00,33.8,24.0,29.53,WNW,291,0.0,5.0,67,0.00,,---,0.00,VWS V14.00,2013-03-04 04:49:00,
2013-03-03 23:50:00,33.8,24.0,29.53,WNW,293,2.0,5.0,67,0.00,,---,0.00,VWS V14.00,2013-03-04 04:50:00,
2013-03-03 23:52:00,33.8,24.0,29.53,NNW,331,3.0,5.0,67,0.00,,---,0.00,VWS V14.00,2013-03-04 04:52:00,
2013-03-03 23:53:00,33.7,23.6,29.53,NNW,335,5.0,12.0,66,0.00,,---,0.00,VWS V14.00,2013-03-04 04:53:00,
2013-03-03 23:54:00,33.7,23.6,29.53,NNW,333,2.0,12.0,66,0.00,,---,0.00,VWS V14.00,2013-03-04 04:54:00,
2013-03-03 23:55:00,33.7,23.6,29.53,North,349,2.0,12.0,66,0.00,,---,0.00,VWS V14.00,2013-03-04 04:55:00,
2013-03-03 23:57:00,33.7,23.6,29.53,NNW,342,5.0,12.0,66,0.00,,---,0.00,VWS V14.00,2013-03-04 04:57:00,
2013-03-03 23:58:00,33.7,23.6,29.54,NNW,338,4.0,12.0,66,0.00,,---,0.00,VWS V14.00,2013-03-04 04:58:00,
2013-03-03 23:59:00,33.7,23.6,29.54,NNW,340,3.0,3.0,66,0.00,,---,0.00,VWS V14.00,2013-03-04 04:59:00,